                ,  0.300,  0.400,  0.500,  0.600,  0.700,  0.800,  0.900,  1.000,  1.100,  1.200,  1.300,  1.400,  1.500,  1.600,  1.700,  1.800,  1.900,  2.000,  2.100,  2.200,  2.300,  2.400,  2.500,  2.600,  2.700,  2.800,  2.900,  3.000,  3.100,  3.200,  3.300,  3.400,  3.500,  3.600,  3.700,  3.800,  3.900,  4.000,  4.100,  4.200,  4.300,  4.400,  4.500,  4.600,  4.700,  4.800,  4.900,  5.000,  5.100,  5.200,  5.300,  5.400,  5.500,  5.600,  5.700,  5.800,  5.900,  6.000
1992/12/19 00:00,    1.1,   -0.1,   -0.3,  999.0,  999.0,  999.0,    0.1,    0.1,    0.1,    0.1,    0.2,    0.1,   -0.4,  999.0,  999.0,    0.0,    0.1,    0.1,  999.0,  999.0,  999.0,  999.0,   -0.1,   -0.2,  999.0,  999.0,   -0.4,   -0.3,  999.0,  999.0,  999.0,    0.1,  999.0,  999.0,  999.0,  999.0,  999.0,  999.0,  999.0,  999.0,  999.0,  999.0,    0.1,  999.0,  999.0,  999.0,  999.0,  999.0,  999.0,  999.0,  999.0,  999.0,  999.0,  999.0,  999.0,  999.0,  999.0,  999.0
1992/12/19 00:10,   -0.2,    0.3,    0.5,    0.1,    0.4,    0.4,    0.1,   -0.2,   -0.2,   -0.1,   -0.2,  999.0,   -0.0,  999.0,   -0.1,    0.1,    0.2,    0.2,    0.1,    0.1,    0.2,    0.0,   -0.0,    0.0,   -0.2,  999.0,  999.0,  999.0,    0.2,    0.1,  999.0,  999.0,  999.0,  999.0,  999.0,  999.0,  999.0,  999.0,  999.0,   -0.1,  999.0,  999.0,  999.0,  999.0,  999.0,  999.0,  999.0,  999.0,  999.0,  999.0,  999.0,  999.0,  999.0,  999.0,  999.0,  999.0,  999.0,  999.0
1992/12/19 00:20,   -0.2,   -0.2,    0.5,    0.1,    0.4,    0.3,    0.3,    0.1,    0.2,    0.2,    0.3,    0.0,    0.1,    0.1,    0.7,    0.1,   -0.1,    0.1,   -0.1,  999.0,  999.0,  999.0,   -0.2,  999.0,    0.1,   -0.1,  999.0,  999.0,  999.0,    0.5,    0.5,  999.0,  999.0,    0.1,  999.0,  999.0,  999.0,  999.0,  999.0,  999.0,  999.0,  999.0,  999.0,  999.0,  999.0,  999.0,  999.0,   -0.1,  999.0,  999.0,    0.0,   -0.1,  999.0,  999.0,  999.0,  999.0,  999.0,  999.0
1992/12/19 00:30,    1.3,    0.6,    0.2,    0.5,   -0.5,   -0.8,    0.2,    0.2,   -0.0,    0.0,   -0.0,   -0.2,    0.0,   -0.0,   -0.0,  999.0,    0.0,   -0.4,   -0.0,  999.0,  999.0,  999.0,   -0.1,    0.0,    0.0,  999.0,  999.0,  999.0,   -0.2,  999.0,  999.0,  999.0,   -0.1,    0.2,    0.1,  999.0,  999.0,  999.0,  999.0,  999.0,  999.0,  999.0,  999.0,  999.0,  999.0,  999.0,  999.0,  999.0,  999.0,  999.0,  999.0,  999.0,  999.0,  999.0,  999.0,  999.0,  999.0,  999.0
1992/12/19 00:40,   -0.1,   -0.3,   -0.1,    0.2,    0.5,    0.5,    0.2,    0.2,    0.2,    0.2,   -0.8,   -0.4,    0.0,    0.0,    0.0,  999.0,    0.0,    0.0,   -0.2,  999.0,  999.0,  999.0,    0.0,   -0.0,    0.0,    0.0,  999.0,  999.0,    0.1,  999.0,  999.0,  999.0,  999.0,  999.0,  999.0,  999.0,  999.0,  999.0,  999.0,  999.0,  999.0,  999.0,  999.0,  999.0,  999.0,  999.0,  999.0,  999.0,  999.0,  999.0,  999.0,  999.0,  999.0,  999.0,  999.0,  999.0,  999.0,  999.0
1992/12/19 00:50,   -0.3,   -0.2,    0.2,    0.4,  999.0,    0.0,   -0.2,    0.0,    0.1,   -0.1,   -0.1,    0.1,   -0.1,   -0.1,  999.0,    0.0,    0.1,    0.0,    0.4,  999.0,  999.0,  999.0,  999.0,  999.0,   -0.1,  999.0,   -0.1,  999.0,  999.0,   -0.1,  999.0,  999.0,  999.0,  999.0,  999.0,  999.0,  999.0,  999.0,  999.0,  999.0,  999.0,  999.0,  999.0,  999.0,  999.0,  999.0,  999.0,  999.0,  999.0,  999.0,  999.0,  999.0,  999.0,  999.0,  999.0,   -0.0,  999.0,  999.0
1992/12/19 01:00,    0.5,    0.3,    0.1,   -0.0,    0.3,   -0.2,    0.0,    0.3,    0.1,    0.2,    0.2,    0.5,    0.2,    0.1,    0.1,    0.1,   -0.1,    0.1,    0.0,  999.0,  999.0,  999.0,    0.1,  999.0,  999.0,  999.0,  999.0,  999.0,    0.4,    0.2,    0.0,  999.0,  999.0,  999.0,  999.0,  999.0,  999.0,  999.0,  999.0,  999.0,  999.0,  999.0,  999.0,  999.0,  999.0,  999.0,  999.0,  999.0,  999.0,  999.0,  999.0,  999.0,  999.0,  999.0,   -0.0,  999.0,   -0.0,  999.0
1992/12/19 01:10,   -0.1,   -0.6,    0.2,   -0.3,   -0.3,   -0.5,   -0.2,   -0.1,   -0.0,   -0.0,   -0.2,    0.1,    0.7,    0.1,    0.1,   -0.1,   -0.0,    0.1,    0.2,    0.2,    0.1,  999.0,  999.0,   -0.2,  999.0,   -0.1,  999.0,  999.0,    0.1,  999.0,    0.0,   -0.1,  999.0,  999.0,  999.0,  999.0,  999.0,  999.0,  999.0,  999.0,  999.0,  999.0,  999.0,  999.0,   -0.1,  999.0,  999.0,   -0.4,  999.0,  999.0,  999.0,   -0.4,   -0.4,  999.0,   -0.4,  999.0,   -0.4,   -0.4
1992/12/19 01:20,    0.0,    0.2,   -0.2,    0.2,    0.2,   -1.3,    0.0,   -0.4,   -0.2,   -0.0,   -0.1,  999.0,    0.1,   -0.0,   -0.1,   -0.1,    0.1,    0.2,    0.4,    0.5,    0.1,    1.0,    1.1,  999.0,  999.0,  999.0,  999.0,  999.0,  999.0,   -0.2,   -0.3,  999.0,  999.0,  999.0,  999.0,   -0.5,  999.0,   -0.7,  999.0,  999.0,  999.0,  999.0,  999.0,  999.0,  999.0,   -0.2,  999.0,  999.0,  999.0,  999.0,  999.0,  999.0,  999.0,  999.0,  999.0,   -0.4,  999.0,   -0.4
1992/12/19 01:30,   -0.4,   -0.3,   -0.8,   -0.1,   -0.4,   -0.0,   -0.2,    0.3,   -0.0,    0.2,   -0.1,   -0.1,   -0.4,   -0.1,   -0.1,   -0.2,    0.1,    0.4,    0.5,    0.5,    0.5,    0.1,  999.0,    0.6,  999.0,  999.0,  999.0,   -0.0,  999.0,   -0.2,   -0.4,   -0.1,  999.0,  999.0,  999.0,  999.0,  999.0,  999.0,  999.0,   -0.5,  999.0,   -0.2,  999.0,   -0.5,  999.0,  999.0,  999.0,   -0.4,  999.0,   -0.4,  999.0,  999.0,   -0.5,  999.0,  999.0,   -0.5,  999.0,   -0.4
1992/12/19 01:40,    0.2,   -0.4,   -0.1,   -0.3,   -0.2,   -0.2,   -0.2,    0.1,   -0.0,    0.0,    0.0,   -0.2,   -0.2,    0.2,    0.0,    0.0,    0.1,    0.2,    0.3,    0.5,    0.6,  999.0,  999.0,  999.0,  999.0,  999.0,  999.0,  999.0,    0.1,  999.0,  999.0,  999.0,  999.0,  999.0,  999.0,  999.0,  999.0,  999.0,   -0.0,  999.0,  999.0,   -0.3,  999.0,  999.0,  999.0,   -0.4,   -0.4,   -0.5,  999.0,  999.0,  999.0,  999.0,   -0.4,  999.0,  999.0,  999.0,  999.0,  999.0
1992/12/19 01:50,    0.3,    0.1,   -0.1,    0.1,   -0.2,   -0.0,   -0.0,   -0.0,    0.0,    0.0,    0.1,    0.1,   -0.0,    0.1,   -0.0,   -0.0,   -0.3,   -0.3,   -0.5,    0.1,    0.1,  999.0,   -0.2,  999.0,  999.0,  999.0,  999.0,  999.0,    0.3,    0.1,  999.0,  999.0,  999.0,  999.0,  999.0,  999.0,  999.0,  999.0,  999.0,  999.0,  999.0,  999.0,   -0.4,   -0.4,  999.0,  999.0,  999.0,  999.0,  999.0,  999.0,  999.0,   -0.5,  999.0,   -0.4,  999.0,  999.0,   -0.4,  999.0
1992/12/19 02:00,    0.3,   -0.0,    0.2,   -0.0,   -0.0,   -0.0,    0.2,    0.1,    0.1,    0.4,    0.3,    0.2,   -0.2,   -0.2,   -0.1,   -0.1,   -0.2,   -0.1,   -0.2,   -1.1,   -1.0,   -0.8,   -1.0,   -1.1,    0.1,    0.5,    0.5,  999.0,  999.0,  999.0,  999.0,  999.0,  999.0,  999.0,  999.0,  999.0,  999.0,  999.0,  999.0,  999.0,  999.0,  999.0,  999.0,  999.0,  999.0,  999.0,  999.0,  999.0,  999.0,  999.0,  999.0,  999.0,  999.0,   -0.4,   -0.4,   -0.4,  999.0,  999.0
1992/12/19 02:10,    0.4,    0.2,    0.2,   -0.5,   -0.6,   -0.2,   -0.1,   -0.1,   -0.0,   -0.4,   -0.1,    0.1,    0.3,    0.1,    0.0,   -0.1,    0.0,   -0.1,   -0.4,   -0.6,   -0.5,   -0.6,   -0.5,   -0.2,  999.0,  999.0,  999.0,  999.0,  999.0,  999.0,  999.0,  999.0,  999.0,  999.0,  999.0,  999.0,  999.0,  999.0,  999.0,  999.0,  999.0,  999.0,  999.0,  999.0,  999.0,  999.0,  999.0,  999.0,  999.0,  999.0,   -0.4,   -0.4,   -0.4,   -0.4,   -0.4,   -0.4,   -0.4,   -0.4
1992/12/19 02:20,    0.1,   -0.2,    0.1,   -0.1,   -0.1,   -0.0,   -0.0,   -0.1,    0.3,    0.3,    0.3,    0.6,   -0.2,   -0.1,    0.1,   -0.1,    0.0,   -0.3,   -0.4,   -0.4,   -0.9,   -1.0,   -1.0,   -1.2,  999.0,  999.0,  999.0,  999.0,  999.0,  999.0,  999.0,  999.0,  999.0,  999.0,  999.0,  999.0,  999.0,  999.0,  999.0,   -0.4,  999.0,  999.0,  999.0,  999.0,  999.0,  999.0,  999.0,  999.0,   -0.4,  999.0,  999.0,   -0.3,  999.0,  999.0,  999.0,  999.0,   -0.4,  999.0
1992/12/19 02:30,    0.2,    0.5,  999.0,   -0.2,   -0.7,    0.1,   -0.0,   -0.0,   -0.1,  999.0,    0.3,   -0.3,    0.2,   -0.2,    0.2,    0.2,    0.3,    0.2,    0.3,    0.2,    0.8,  999.0,    0.2,  999.0,  999.0,    1.0,  999.0,  999.0,  999.0,  999.0,  999.0,  999.0,  999.0,  999.0,  999.0,  999.0,  999.0,  999.0,  999.0,  999.0,  999.0,  999.0,  999.0,  999.0,  999.0,  999.0,  999.0,  999.0,  999.0,  999.0,  999.0,  999.0,  999.0,  999.0,   -0.4,   -0.4,  999.0,   -0.4
1992/12/19 02:40,    0.5,  999.0,   -0.4,    0.2,    0.0,   -0.1,   -0.1,   -0.2,   -0.3,    0.1,    0.0,  999.0,  999.0,   -0.3,   -0.2,    0.2,   -0.1,   -0.1,   -0.1,   -0.2,   -0.1,  999.0,  999.0,  999.0,  999.0,  999.0,  999.0,    0.9,  999.0,  999.0,  999.0,  999.0,  999.0,  999.0,  999.0,  999.0,  999.0,  999.0,  999.0,  999.0,  999.0,  999.0,    0.8,  999.0,   -0.1,  999.0,  999.0,   -0.1,  999.0,   -0.1,  999.0,  999.0,  999.0,  999.0,  999.0,  999.0,  999.0,  999.0
1992/12/19 02:50,   -0.5,  999.0,   -0.9,    0.1,   -0.2,   -0.3,   -0.2,    0.3,    0.0,    0.0,   -0.1,    0.1,  999.0,   -0.0,   -0.1,    0.1,   -0.1,   -0.0,    0.1,    0.0,  999.0,    0.7,    0.7,  999.0,   -0.1,  999.0,  999.0,  999.0,  999.0,  999.0,  999.0,  999.0,  999.0,  999.0,  999.0,  999.0,  999.0,  999.0,  999.0,  999.0,  999.0,  999.0,  999.0,  999.0,  999.0,  999.0,  999.0,  999.0,  999.0,  999.0,    0.1,   -0.1,  999.0,   -0.2,  999.0,   -0.2,  999.0,   -0.3
1992/12/19 03:00,   -0.3,  999.0,  999.0,    0.4,    0.2,    0.5,    0.2,   -0.0,    0.3,    0.0,   -0.0,   -0.0,  999.0,   -0.0,   -0.0,  999.0,    0.2,  999.0,    0.0,    0.1,    0.2,  999.0,    0.1,  999.0,  999.0,    0.1,  999.0,  999.0,  999.0,  999.0,  999.0,  999.0,    0.1,  999.0,  999.0,  999.0,  999.0,  999.0,  999.0,  999.0,  999.0,  999.0,  999.0,  999.0,  999.0,  999.0,  999.0,  999.0,  999.0,  999.0,  999.0,  999.0,  999.0,  999.0,  999.0,  999.0,  999.0,  999.0
1992/12/19 03:10,    0.2,    0.5,   -0.1,   -0.2,   -0.2,   -0.2,   -0.2,   -0.2,   -0.0,   -0.0,   -0.1,   -1.3,   -2.4,   -0.8,   -0.0,  999.0,   -0.4,   -0.2,   -0.2,   -0.2,  999.0,  999.0,  999.0,  999.0,  999.0,  999.0,  999.0,  999.0,   -0.8,  999.0,  999.0,  999.0,  999.0,  999.0,  999.0,  999.0,  999.0,  999.0,  999.0,   -0.0,  999.0,  999.0,  999.0,  999.0,  999.0,  999.0,  999.0,  999.0,  999.0,  999.0,  999.0,  999.0,  999.0,    0.0,  999.0,  999.0,  999.0,  999.0
1992/12/19 03:20,    0.5,    0.2,    0.2,    0.1,   -0.0,    0.1,    0.3,    0.2,    0.0,   -0.0,  999.0,    0.2,    0.1,   -0.0,  999.0,   -0.2,  999.0,   -0.2,   -0.1,   -0.0,  999.0,  999.0,  999.0,  999.0,  999.0,  999.0,  999.0,  999.0,  999.0,  999.0,  999.0,  999.0,  999.0,  999.0,  999.0,  999.0,  999.0,  999.0,  999.0,  999.0,  999.0,  999.0,  999.0,  999.0,  999.0,  999.0,  999.0,  999.0,  999.0,  999.0,  999.0,  999.0,  999.0,  999.0,  999.0,  999.0,  999.0,  999.0
1992/12/19 03:30,    0.8,    0.0,    0.1,   -0.5,    0.1,    0.0,   -0.6,    0.1,    0.1,    0.1,    0.2,  999.0,  999.0,    0.2,    0.1,  999.0,  999.0,    0.2,   -0.1,    0.3,    0.1,  999.0,   -0.1,  999.0,  999.0,  999.0,    0.3,  999.0,  999.0,  999.0,  999.0,  999.0,  999.0,  999.0,  999.0,  999.0,  999.0,  999.0,  999.0,  999.0,   -0.1,  999.0,  999.0,  999.0,  999.0,  999.0,  999.0,  999.0,  999.0,  999.0,  999.0,  999.0,  999.0,  999.0,  999.0,  999.0,  999.0,  999.0
1992/12/19 03:40,   -0.8,  999.0,  999.0,   -0.1,    0.6,    0.2,    0.7,   -0.0,    0.3,    0.0,    0.1,    0.1,  999.0,  999.0,  999.0,    0.3,  999.0,    0.1,   -0.1,   -0.1,   -0.1,  999.0,  999.0,  999.0,  999.0,  999.0,  999.0,   -0.1,  999.0,    0.1,  999.0,  999.0,  999.0,  999.0,  999.0,  999.0,  999.0,  999.0,  999.0,  999.0,  999.0,  999.0,  999.0,  999.0,  999.0,  999.0,  999.0,  999.0,  999.0,  999.0,  999.0,  999.0,  999.0,  999.0,  999.0,  999.0,  999.0,   -0.1
1992/12/19 03:50,    0.7,    0.2,   -0.3,   -0.6,    0.0,   -0.3,    0.1,    0.1,    0.2,    0.1,    0.1,   -0.0,   -0.0,   -0.1,   -0.1,   -0.0,   -0.1,   -0.1,   -0.2,   -0.4,   -0.4,   -0.0,  999.0,  999.0,  999.0,   -0.1,  999.0,  999.0,  999.0,  999.0,  999.0,  999.0,    0.2,  999.0,  999.0,  999.0,  999.0,    0.4,  999.0,    0.6,  999.0,  999.0,  999.0,  999.0,    0.6,    0.6,    0.6,  999.0,    0.6,  999.0,  999.0,    0.6,    0.6,  999.0,  999.0,  999.0,  999.0,  999.0
1992/12/19 04:00,   -0.3,   -0.1,   -0.3,   -0.5,   -0.1,   -0.6,   -0.5,  999.0,    0.6,    0.0,   -0.2,   -0.1,  999.0,  999.0,  999.0,  999.0,    0.0,   -0.1,    0.0,  999.0,    0.1,  999.0,  999.0,   -0.1,  999.0,  999.0,  999.0,  999.0,  999.0,  999.0,  999.0,  999.0,    0.1,  999.0,  999.0,  999.0,  999.0,    0.4,    0.2,  999.0,  999.0,  999.0,  999.0,    0.5,  999.0,  999.0,  999.0,  999.0,  999.0,  999.0,  999.0,  999.0,   -0.2,    0.6,    0.6,    0.6,  999.0,    0.6
1992/12/19 04:10,   -0.2,   -0.4,    0.5,   -0.7,    0.1,    0.2,    0.4,   -0.0,   -0.6,    0.1,    0.2,  999.0,    0.1,  999.0,  999.0,  999.0,  999.0,    0.1,    0.2,    0.0,  999.0,  999.0,  999.0,  999.0,   -0.0,  999.0,    0.2,  999.0,  999.0,  999.0,  999.0,  999.0,    0.2,    0.4,  999.0,  999.0,  999.0,  999.0,  999.0,  999.0,    0.3,  999.0,  999.0,  999.0,  999.0,  999.0,    0.4,  999.0,  999.0,  999.0,    0.5,  999.0,  999.0,    0.5,  999.0,    0.6,  999.0,  999.0
1992/12/19 04:20,   -1.1,    0.1,   -0.2,    0.3,    0.6,    0.3,   -0.0,   -0.1,    0.8,    0.0,    0.1,    0.1,    0.1,  999.0,  999.0,  999.0,  999.0,  999.0,  999.0,    0.0,    0.1,  999.0,  999.0,  999.0,  999.0,  999.0,  999.0,  999.0,  999.0,  999.0,  999.0,  999.0,  999.0,  999.0,  999.0,  999.0,  999.0,    0.3,  999.0,    0.4,    0.6,  999.0,  999.0,  999.0,  999.0,  999.0,  999.0,  999.0,  999.0,  999.0,    0.1,  999.0,  999.0,  999.0,  999.0,  999.0,  999.0,  999.0
1992/12/19 04:30,    0.5,   -0.1,  999.0,   -0.7,    0.3,   -0.1,  999.0,   -0.1,    0.1,   -0.2,   -0.0,   -0.0,   -0.6,   -0.8,  999.0,   -0.1,   -0.1,   -0.1,   -0.2,   -0.2,  999.0,  999.0,  999.0,  999.0,  999.0,  999.0,  999.0,  999.0,  999.0,  999.0,  999.0,  999.0,  999.0,  999.0,  999.0,  999.0,  999.0,  999.0,  999.0,  999.0,  999.0,  999.0,  999.0,  999.0,  999.0,  999.0,    0.1,    0.0,  999.0,  999.0,  999.0,    0.1,    0.1,    0.2,  999.0,  999.0,    0.2,    0.2
1992/12/19 04:40,    0.5,   -0.0,    0.3,   -0.4,    0.3,    0.1,   -0.0,   -0.0,    0.4,    0.5,    0.1,    0.1,   -0.1,   -0.2,    0.1,    0.1,   -0.0,    0.1,    0.1,    0.1,    0.4,  999.0,  999.0,  999.0,    0.1,  999.0,  999.0,  999.0,  999.0,  999.0,  999.0,   -0.0,  999.0,  999.0,  999.0,  999.0,  999.0,  999.0,  999.0,  999.0,  999.0,  999.0,  999.0,  999.0,  999.0,  999.0,  999.0,    0.1,   -0.1,  999.0,    0.1,    0.1,    0.1,  999.0,  999.0,  999.0,    0.1,  999.0
1992/12/19 04:50,    0.9,  999.0,   -0.3,   -0.4,   -0.3,   -0.1,    0.0,    0.0,   -0.1,   -0.1,  999.0,   -0.1,   -0.1,   -0.1,   -0.1,   -0.1,   -0.0,   -0.2,   -0.0,   -0.0,    0.0,  999.0,  999.0,  999.0,  999.0,   -1.4,   -1.3,   -1.5,   -1.5,   -1.5,   -1.4,   -1.3,   -1.4,   -1.2,   -1.2,   -1.0,   -1.1,   -0.9,   -1.2,   -0.9,   -1.2,   -1.2,   -1.2,   -1.0,   -1.3,  999.0,  999.0,   -1.5,  999.0,  999.0,  999.0,  999.0,  999.0,  999.0,  999.0,   -1.7,  999.0,  999.0
1992/12/19 05:00,    1.0,    1.7,    0.3,    0.2,    0.1,   -0.5,    0.2,    0.2,    0.1,    0.1,  999.0,    0.4,    0.2,    0.2,    0.1,  999.0,    0.2,    0.1,  999.0,  999.0,  999.0,  999.0,  999.0,   -0.8,   -1.1,   -1.0,   -0.9,   -1.0,   -0.9,   -0.9,   -0.9,   -1.0,   -1.0,   -0.9,   -1.0,   -1.0,   -0.9,   -0.9,   -0.9,   -0.8,   -0.8,  999.0,   -0.9,   -0.8,   -1.1,   -0.5,  999.0,  999.0,  999.0,  999.0,   -0.6,   -1.5,  999.0,  999.0,   -0.6,  999.0,  999.0,  999.0
1992/12/19 05:10,    0.8,  999.0,    0.0,   -0.4,    0.2,    0.2,    0.6,    0.6,    0.1,    0.1,    0.3,    0.2,    0.2,    0.3,    0.1,  999.0,    0.1,   -0.2,   -0.8,   -1.4,   -1.5,   -1.5,   -1.5,   -1.5,   -1.6,   -1.6,   -1.6,   -1.6,   -1.6,   -1.6,   -1.6,   -1.5,   -1.4,   -1.4,   -1.4,   -1.4,   -1.4,   -1.6,   -1.3,   -1.4,   -1.7,   -1.5,  999.0,  999.0,  999.0,  999.0,  999.0,  999.0,  999.0,    0.0,  999.0,  999.0,  999.0,  999.0,  999.0,  999.0,  999.0,  999.0
1992/12/19 05:20,    1.2,  999.0,   -0.2,    0.3,   -0.1,    0.2,    0.1,    0.2,    0.2,    0.3,    0.1,    0.5,   -0.4,   -1.2,   -1.3,   -1.3,   -1.3,   -1.3,   -1.3,   -1.3,   -1.3,   -1.3,   -1.4,   -1.4,   -1.4,   -1.4,   -1.3,   -1.3,   -1.3,   -1.2,   -1.2,   -1.1,   -1.0,   -1.0,   -0.7,   -0.9,  999.0,   -0.5,  999.0,   -0.6,   -0.4,  999.0,  999.0,  999.0,  999.0,  999.0,  999.0,  999.0,  999.0,  999.0,   -0.1,   -0.6,  999.0,  999.0,  999.0,  999.0,  999.0,  999.0
1992/12/19 05:30,   -0.3,   -0.6,   -0.3,   -0.6,    0.1,    0.7,    0.4,    1.0,    0.3,   -0.7,   -0.4,   -0.9,   -1.3,   -1.4,   -1.4,   -1.4,   -1.4,   -1.4,   -1.4,   -1.4,   -1.4,   -1.3,   -1.3,   -1.3,   -1.3,   -1.3,   -1.2,   -1.3,   -1.1,   -1.1,   -1.1,   -1.2,   -1.1,   -1.1,   -1.1,   -1.2,   -0.9,   -1.1,  999.0,  999.0,  999.0,  999.0,  999.0,  999.0,  999.0,   -0.0,  999.0,  999.0,   -0.5,  999.0,  999.0,  999.0,  999.0,  999.0,  999.0,  999.0,  999.0,  999.0
1992/12/19 05:40,    0.3,  999.0,  999.0,    0.0,   -0.2,    0.0,    0.3,   -0.5,    0.5,    0.5,    0.2,    0.0,   -0.2,   -0.3,   -0.7,   -0.8,   -1.0,   -1.2,   -1.3,   -1.4,   -1.4,   -1.4,   -1.4,   -1.4,   -1.3,   -1.3,   -1.4,   -1.3,   -1.4,   -1.4,   -1.3,   -1.2,   -1.3,   -1.4,   -1.1,   -1.2,   -1.1,   -1.1,  999.0,   -0.6,   -1.7,  999.0,   -0.4,  999.0,  999.0,  999.0,  999.0,  999.0,   -0.1,   -0.2,  999.0,  999.0,  999.0,  999.0,  999.0,  999.0,  999.0,  999.0
1992/12/19 05:50,   -0.1,    0.2,    0.0,    1.5,   -0.3,    0.3,    0.4,    0.3,    0.1,    0.3,    0.3,    0.1,    0.3,    0.3,   -0.3,   -1.2,   -1.6,   -1.9,   -1.8,   -1.6,   -1.6,   -1.8,   -1.8,   -1.7,   -1.7,   -1.7,   -1.7,   -1.8,   -1.7,   -1.7,   -1.6,   -1.7,   -1.4,   -1.3,   -1.4,   -1.1,  999.0,  999.0,  999.0,  999.0,  999.0,  999.0,  999.0,  999.0,  999.0,  999.0,  999.0,  999.0,  999.0,  999.0,  999.0,  999.0,  999.0,  999.0,  999.0,  999.0,  999.0,  999.0
1992/12/19 06:00,   -0.3,   -0.3,   -0.1,   -0.1,    0.2,    0.1,  999.0,   -0.0,    0.3,    0.4,    0.3,   -0.0,   -0.1,   -0.4,   -1.0,   -0.6,   -1.2,   -1.4,   -1.5,   -1.0,   -1.6,   -1.5,   -1.5,   -1.6,   -1.4,   -1.4,   -1.4,   -1.6,   -1.4,   -1.6,   -1.6,   -1.9,  999.0,  999.0,  999.0,  999.0,   -1.4,  999.0,  999.0,  999.0,  999.0,  999.0,  999.0,  999.0,  999.0,  999.0,  999.0,  999.0,   -1.3,  999.0,  999.0,  999.0,  999.0,  999.0,  999.0,  999.0,  999.0,  999.0
1992/12/19 06:10,   -0.7,   -0.4,   -0.1,   -0.0,  999.0,   -1.0,   -0.2,   -0.4,    0.1,    0.0,    0.0,   -0.1,   -0.1,   -0.2,   -0.3,   -0.2,   -0.1,   -1.0,   -1.0,   -1.1,   -1.4,   -1.4,   -1.4,   -1.2,   -1.1,   -0.9,   -1.0,  999.0,  999.0,  999.0,  999.0,  999.0,  999.0,  999.0,  999.0,  999.0,  999.0,  999.0,  999.0,   -1.6,  999.0,  999.0,  999.0,  999.0,  999.0,  999.0,  999.0,   -0.1,  999.0,  999.0,  999.0,  999.0,  999.0,  999.0,  999.0,  999.0,  999.0,  999.0
1992/12/19 06:20,   -0.4,   -0.7,   -1.0,   -1.0,   -0.5,   -0.5,   -0.0,   -0.4,    0.0,    0.1,   -0.0,    0.1,   -0.2,   -0.3,   -0.3,   -0.1,   -0.2,   -0.2,   -0.1,    0.5,    0.2,    0.4,   -0.7,    0.3,  999.0,   -0.7,   -0.7,  999.0,  999.0,  999.0,  999.0,  999.0,  999.0,  999.0,  999.0,  999.0,  999.0,  999.0,  999.0,  999.0,  999.0,   -0.4,  999.0,  999.0,  999.0,  999.0,   -0.0,  999.0,   -0.1,  999.0,   -0.2,  999.0,  999.0,    0.1,  999.0,  999.0,  999.0,  999.0
1992/12/19 06:30,    0.2,    0.2,    0.1,   -0.1,    0.2,    0.1,   -0.1,   -0.0,   -0.1,   -0.1,   -0.2,   -0.3,   -0.1,   -0.1,   -0.1,   -0.1,   -0.3,   -0.5,   -0.5,   -0.5,   -0.3,   -0.2,    0.0,  999.0,   -0.4,  999.0,   -0.4,  999.0,  999.0,  999.0,  999.0,   -0.1,  999.0,  999.0,  999.0,  999.0,  999.0,  999.0,  999.0,  999.0,  999.0,  999.0,  999.0,  999.0,  999.0,  999.0,  999.0,  999.0,  999.0,  999.0,  999.0,  999.0,    0.2,  999.0,  999.0,  999.0,  999.0,  999.0
1992/12/19 06:40,    0.2,   -0.2,   -0.1,   -0.1,   -0.1,   -0.0,    0.1,    0.3,    0.3,   -0.1,    0.0,    0.0,    0.1,   -0.2,   -0.5,   -0.4,   -0.4,   -0.2,   -0.3,   -0.1,    0.7,    0.1,    0.8,   -0.5,  999.0,  999.0,  999.0,  999.0,  999.0,  999.0,  999.0,  999.0,  999.0,  999.0,  999.0,  999.0,  999.0,  999.0,   -1.7,  999.0,   -0.1,  999.0,  999.0,  999.0,   -0.1,  999.0,  999.0,  999.0,  999.0,  999.0,  999.0,  999.0,  999.0,  999.0,  999.0,    0.8,  999.0,  999.0
1992/12/19 06:50,    0.1,    0.4,    0.0,    0.1,    0.1,    0.3,    0.3,    0.1,    0.1,    0.0,   -0.0,   -0.2,   -0.1,   -0.2,    0.2,    0.2,   -0.1,   -0.2,   -0.2,   -0.1,   -0.1,   -0.4,   -0.3,   -0.4,  999.0,   -1.0,  999.0,  999.0,  999.0,  999.0,  999.0,  999.0,  999.0,  999.0,  999.0,  999.0,  999.0,    0.0,  999.0,  999.0,  999.0,  999.0,  999.0,  999.0,  999.0,  999.0,  999.0,  999.0,  999.0,  999.0,  999.0,  999.0,  999.0,    0.0,  999.0,  999.0,  999.0,  999.0
1992/12/19 07:00,   -0.0,  999.0,    0.1,   -0.2,   -0.0,    0.2,    0.2,    0.0,    0.0,   -0.0,   -0.3,   -0.1,    0.1,   -0.2,   -0.2,   -0.1,   -0.1,    0.0,   -0.2,  999.0,   -0.2,   -0.1,   -0.4,   -0.4,  999.0,  999.0,  999.0,  999.0,  999.0,   -0.2,  999.0,   -0.5,  999.0,  999.0,  999.0,  999.0,  999.0,  999.0,  999.0,  999.0,  999.0,  999.0,  999.0,  999.0,  999.0,  999.0,    0.2,    0.2,   -0.5,  999.0,  999.0,  999.0,  999.0,    0.1,  999.0,  999.0,  999.0,  999.0
1992/12/19 07:10,   -0.3,   -0.2,   -0.1,    0.1,    0.0,    0.1,    0.2,    0.2,    0.1,    0.1,    0.4,   -0.2,   -0.2,   -0.1,    0.2,    0.0,   -0.1,   -0.3,   -0.1,    0.1,   -0.4,  999.0,  999.0,    0.2,  999.0,   -1.1,  999.0,   -1.1,  999.0,  999.0,   -1.2,   -0.9,   -0.8,   -1.0,   -1.2,  999.0,   -0.5,  999.0,  999.0,  999.0,  999.0,  999.0,  999.0,  999.0,  999.0,  999.0,   -0.3,  999.0,  999.0,  999.0,    0.2,  999.0,  999.0,  999.0,    0.1,    0.1,    0.1,  999.0
1992/12/19 07:20,    0.1,    0.4,    0.2,    0.1,   -0.2,    0.1,    0.1,   -0.2,    0.1,   -0.0,    0.1,    0.1,    0.2,    0.3,    0.2,    0.1,   -0.0,   -0.2,   -0.1,   -0.3,   -0.4,   -0.2,   -0.6,   -1.3,   -1.3,   -1.1,   -1.2,   -1.1,   -1.1,   -1.2,   -1.1,   -1.1,   -1.0,  999.0,  999.0,  999.0,   -1.3,   -0.8,   -0.5,  999.0,  999.0,  999.0,  999.0,  999.0,  999.0,  999.0,  999.0,  999.0,   -0.1,  999.0,  999.0,  999.0,  999.0,  999.0,  999.0,  999.0,  999.0,  999.0
1992/12/19 07:30,    0.2,   -0.2,    0.6,    0.0,   -0.0,    0.1,    0.2,   -0.0,    0.0,    0.1,    0.1,    0.1,    0.1,   -0.1,   -0.0,   -0.4,   -0.6,    0.0,   -0.0,   -1.1,   -0.5,   -0.8,   -1.6,   -1.4,   -1.2,   -1.2,   -1.0,   -1.0,   -0.7,   -1.2,   -1.0,  999.0,   -0.6,   -0.7,    0.2,   -0.4,  999.0,   -1.0,  999.0,  999.0,  999.0,  999.0,  999.0,  999.0,  999.0,  999.0,  999.0,   -0.2,   -0.3,   -0.3,  999.0,  999.0,  999.0,  999.0,  999.0,   -0.2,  999.0,   -0.2
1992/12/19 07:40,   -0.1,  999.0,   -0.0,    0.0,    0.2,    0.2,   -0.0,    0.1,    0.2,    0.1,   -0.1,   -0.1,   -0.2,   -0.0,    0.4,    0.6,    0.8,    0.4,    0.3,    0.2,    0.0,   -0.3,   -0.2,   -0.4,   -0.4,   -0.9,   -1.0,   -1.0,   -1.0,   -0.9,   -0.7,   -0.8,   -0.9,   -0.7,  999.0,  999.0,  999.0,  999.0,   -1.3,  999.0,   -0.9,  999.0,  999.0,  999.0,  999.0,  999.0,  999.0,  999.0,  999.0,  999.0,  999.0,  999.0,   -0.7,  999.0,  999.0,  999.0,  999.0,   -0.0
1992/12/19 07:50,   -0.1,    0.1,   -0.0,    0.1,    0.1,    0.1,    0.1,    0.2,   -0.0,    0.0,   -0.3,   -0.5,   -0.7,   -0.5,   -0.3,   -0.1,   -0.0,    0.0,   -0.0,    0.1,   -0.3,   -0.7,   -0.6,   -0.5,   -0.5,   -0.6,   -1.2,   -1.2,   -1.1,   -1.4,   -1.4,   -1.6,   -1.6,   -1.6,   -1.6,   -1.5,   -1.5,   -1.4,   -1.3,   -1.2,  999.0,    0.1,   -1.1,  999.0,   -1.0,   -0.9,  999.0,   -1.2,   -1.5,  999.0,  999.0,  999.0,  999.0,  999.0,  999.0,  999.0,  999.0,   -1.5
1992/12/19 08:00,   -0.1,   -0.4,   -0.2,   -0.0,   -0.1,   -0.1,   -0.2,   -0.3,   -0.4,   -0.2,   -0.3,   -0.4,   -0.7,   -0.4,   -0.5,   -0.4,   -0.3,   -0.4,   -0.3,   -0.4,   -0.3,   -0.2,   -0.3,   -0.3,   -0.7,   -0.7,   -1.2,   -1.2,   -1.3,   -1.3,   -1.2,   -1.3,   -1.2,   -1.3,   -1.0,   -1.3,   -1.0,   -1.1,  999.0,   -1.2,  999.0,  999.0,   -0.8,  999.0,  999.0,  999.0,  999.0,  999.0,  999.0,   -0.4,   -0.1,  999.0,   -0.6,  999.0,  999.0,  999.0,  999.0,  999.0
1992/12/19 08:10,    0.3,    0.1,    0.0,    0.0,   -0.0,   -0.1,   -0.0,    0.1,    0.0,   -0.0,   -0.2,   -0.4,   -1.2,   -1.2,   -1.2,   -1.3,   -1.3,   -1.3,   -1.0,   -1.0,   -0.8,   -0.7,   -0.6,   -0.7,   -0.8,   -1.3,   -1.3,   -1.2,   -1.3,   -1.3,   -1.4,   -1.4,   -1.2,   -1.2,   -1.4,   -1.0,   -1.1,  999.0,  999.0,  999.0,  999.0,  999.0,   -1.2,   -1.1,  999.0,  999.0,   -1.0,   -0.5,   -1.0,  999.0,  999.0,  999.0,  999.0,  999.0,  999.0,  999.0,  999.0,  999.0
1992/12/19 08:20,   -0.0,   -0.1,   -0.2,    0.0,    0.2,   -1.0,   -1.1,   -1.3,   -1.1,   -1.1,   -1.2,   -1.6,   -1.8,   -1.9,   -1.4,   -1.4,   -1.4,   -1.8,   -1.7,   -1.6,   -1.4,   -0.9,   -1.4,   -1.4,   -1.4,   -1.4,   -1.3,   -0.9,   -1.1,   -1.1,   -1.3,   -1.2,   -1.2,   -1.7,  999.0,   -1.3,  999.0,  999.0,  999.0,  999.0,  999.0,  999.0,  999.0,  999.0,  999.0,  999.0,  999.0,  999.0,  999.0,  999.0,  999.0,  999.0,  999.0,  999.0,  999.0,   -0.7,   -0.8,   -0.9
1992/12/19 08:30,    0.0,   -0.5,   -0.2,   -0.6,   -1.1,   -1.5,   -1.6,   -1.6,   -1.6,   -1.6,   -1.6,   -1.5,   -1.5,   -1.5,   -1.5,   -1.5,   -1.4,   -1.3,   -1.0,   -1.2,   -0.9,   -0.7,   -1.1,   -1.2,   -1.2,   -1.1,   -1.1,   -1.2,   -1.1,   -1.1,   -1.3,   -1.2,  999.0,   -1.3,  999.0,  999.0,  999.0,  999.0,   -0.2,  999.0,  999.0,  999.0,  999.0,  999.0,  999.0,   -0.1,  999.0,  999.0,  999.0,   -0.3,   -0.6,  999.0,  999.0,  999.0,  999.0,   -1.5,   -1.6,   -1.4
1992/12/19 08:40,   -0.1,    0.2,    0.2,    0.1,   -0.8,   -1.5,   -1.4,   -1.4,   -1.4,   -1.4,   -1.4,   -1.4,   -1.4,   -1.2,   -1.2,   -1.4,   -1.3,   -1.3,   -1.1,   -1.1,   -1.1,   -1.0,   -1.1,   -1.0,   -1.0,   -0.9,   -1.1,   -1.1,   -1.0,  999.0,   -1.1,  999.0,  999.0,  999.0,   -0.8,  999.0,  999.0,  999.0,   -0.2,  999.0,  999.0,  999.0,  999.0,  999.0,  999.0,  999.0,  999.0,  999.0,  999.0,  999.0,  999.0,  999.0,   -1.0,   -1.2,   -1.3,   -1.3,   -1.4,   -1.4
1992/12/19 08:50,    0.0,    0.2,    0.2,   -0.3,   -0.4,   -0.7,   -1.6,   -1.7,   -1.4,   -1.4,   -1.6,   -1.7,   -1.6,   -1.6,   -1.6,   -1.5,   -1.3,   -1.2,   -1.3,   -1.2,   -0.9,   -0.8,   -1.1,   -1.0,   -1.1,   -1.1,   -1.1,   -1.1,   -0.9,   -1.1,   -1.0,   -0.8,  999.0,   -0.9,   -0.0,  999.0,    0.0,   -0.8,  999.0,   -0.9,   -0.3,  999.0,  999.0,  999.0,  999.0,  999.0,  999.0,  999.0,    0.2,  999.0,   -1.1,   -1.2,   -1.2,   -1.2,   -1.3,   -1.3,   -1.5,   -1.4
1992/12/19 09:00,    0.0,   -0.5,   -0.8,   -0.4,   -0.7,   -0.4,   -1.2,   -1.4,   -1.4,   -1.1,   -1.4,   -1.4,   -1.3,   -1.2,   -1.2,   -1.1,   -1.1,   -1.0,   -1.0,   -0.8,   -0.6,   -0.7,   -0.9,   -0.8,   -0.8,   -0.8,   -0.7,   -1.0,   -0.4,  999.0,  999.0,  999.0,    0.0,  999.0,   -0.9,   -0.7,   -0.2,  999.0,  999.0,  999.0,  999.0,  999.0,  999.0,  999.0,  999.0,  999.0,  999.0,  999.0,  999.0,  999.0,   -1.2,   -1.2,   -1.3,   -1.3,   -1.4,   -1.5,   -1.5,   -1.6
1992/12/19 09:10,    0.1,    0.1,   -0.0,   -0.8,   -1.1,   -1.2,   -1.1,   -1.3,   -1.3,   -1.4,   -1.4,   -1.4,   -1.3,   -1.3,   -1.2,   -1.2,   -1.0,   -0.8,   -0.7,   -0.6,   -0.7,   -0.9,   -0.8,   -0.9,   -0.8,   -0.8,   -0.7,   -0.3,   -0.4,  999.0,   -0.5,  999.0,  999.0,   -0.5,  999.0,   -0.0,  999.0,   -0.2,  999.0,  999.0,  999.0,  999.0,  999.0,  999.0,  999.0,  999.0,  999.0,  999.0,  999.0,   -1.1,   -1.2,   -1.2,   -1.3,   -1.3,   -1.3,   -1.3,   -1.3,   -1.4
1992/12/19 09:20,    0.2,    0.1,   -0.1,   -0.5,   -1.4,   -1.2,   -0.7,   -1.3,   -1.1,   -0.9,   -1.3,   -1.3,   -1.2,   -1.1,   -1.1,   -0.8,   -0.8,   -0.8,   -0.7,   -0.8,   -0.8,   -0.5,   -0.5,   -0.9,   -0.3,   -0.5,   -0.5,   -0.5,   -0.5,   -0.4,  999.0,  999.0,  999.0,  999.0,  999.0,  999.0,  999.0,  999.0,  999.0,  999.0,  999.0,  999.0,  999.0,  999.0,  999.0,  999.0,  999.0,  999.0,  999.0,   -1.2,   -1.2,   -1.3,   -1.3,   -1.3,   -1.4,   -1.5,   -1.5,   -1.6
1992/12/19 09:30,    0.0,    0.1,    0.1,    0.0,   -1.0,   -0.7,   -0.7,   -1.4,   -1.4,   -1.3,   -1.4,   -1.3,   -1.3,   -1.2,   -1.2,   -1.2,   -1.1,   -1.1,   -1.2,   -1.1,   -0.8,   -0.5,   -1.0,   -1.1,   -0.7,   -0.7,   -0.0,   -0.2,  999.0,  999.0,   -0.9,    0.5,  999.0,  999.0,  999.0,  999.0,   -1.1,  999.0,  999.0,  999.0,  999.0,  999.0,  999.0,  999.0,  999.0,  999.0,  999.0,  999.0,  999.0,   -1.0,   -1.1,   -1.2,   -1.2,   -1.2,   -1.3,   -1.4,   -1.5,   -1.6
1992/12/19 09:40,   -0.1,   -0.1,    0.0,    0.1,   -1.4,   -1.2,   -1.1,   -1.4,   -1.4,   -1.3,   -1.3,   -1.3,   -1.2,   -0.7,   -0.2,   -0.8,   -1.0,   -1.2,   -0.9,   -0.2,   -0.5,   -0.1,  999.0,   -0.8,   -0.8,   -0.1,   -0.6,    0.0,   -0.8,   -0.6,   -0.5,    0.0,   -0.3,  999.0,   -0.3,    0.1,   -0.3,    0.1,    0.0,  999.0,   -0.2,   -0.6,   -0.7,   -0.0,   -0.4,   -0.7,   -1.0,  999.0,  999.0,  999.0,   -1.1,   -1.2,   -1.2,   -1.2,   -1.3,   -1.4,   -1.5,   -1.5
1992/12/19 09:50,   -0.1,   -0.2,   -0.3,   -0.5,   -1.1,   -1.2,   -1.2,   -1.1,   -1.0,   -1.0,   -1.1,   -0.9,   -1.1,   -1.0,   -0.9,   -1.0,   -0.7,   -1.1,   -0.7,   -0.4,  999.0,   -0.9,   -0.2,   -1.1,   -0.1,  999.0,   -0.2,   -0.6,  999.0,   -0.5,   -0.9,  999.0,  999.0,  999.0,  999.0,  999.0,  999.0,  999.0,   -0.0,  999.0,   -0.0,  999.0,  999.0,  999.0,  999.0,   -0.1,  999.0,   -0.0,  999.0,  999.0,  999.0,   -1.0,   -1.3,   -1.4,   -1.4,   -1.5,   -1.6,   -1.6
1992/12/19 10:00,    0.0,   -0.1,   -0.1,   -0.1,   -0.7,   -1.1,   -1.0,   -1.1,   -0.8,   -1.0,   -0.6,   -0.6,   -1.0,   -0.9,   -1.2,   -1.0,   -0.8,   -1.0,   -0.8,   -0.6,  999.0,   -1.0,   -1.1,   -1.2,  999.0,   -0.8,   -1.2,   -0.8,  999.0,   -1.2,  999.0,  999.0,  999.0,  999.0,   -1.0,    0.1,   -1.2,  999.0,  999.0,  999.0,  999.0,   -1.7,  999.0,  999.0,  999.0,  999.0,  999.0,  999.0,  999.0,  999.0,  999.0,  999.0,   -1.4,   -1.3,   -1.3,   -1.2,   -1.3,   -1.3
1992/12/19 10:10,   -0.0,    0.0,   -0.3,    0.5,  999.0,   -1.3,   -1.0,   -1.1,   -1.0,   -0.9,   -0.7,   -0.9,   -1.3,   -1.0,   -1.0,   -1.2,   -1.1,   -1.2,  999.0,   -1.2,   -1.1,  999.0,  999.0,  999.0,   -1.0,   -1.1,  999.0,  999.0,  999.0,  999.0,  999.0,  999.0,   -0.6,  999.0,  999.0,  999.0,   -0.9,  999.0,   -0.9,  999.0,   -0.5,   -0.7,   -0.9,  999.0,  999.0,  999.0,   -0.5,   -0.1,  999.0,  999.0,  999.0,  999.0,  999.0,  999.0,  999.0,  999.0,  999.0,  999.0
1992/12/19 10:20,   -0.2,    0.2,    0.1,    0.1,    0.1,   -0.5,   -1.2,   -0.9,   -1.0,   -0.9,   -1.3,   -0.6,   -1.2,   -1.1,   -0.9,   -1.0,   -0.8,   -0.6,   -0.2,   -0.1,   -0.3,   -0.4,   -0.7,    0.0,  999.0,   -0.0,  999.0,  999.0,    0.2,   -0.7,    0.8,   -0.1,  999.0,   -0.0,  999.0,  999.0,  999.0,  999.0,  999.0,   -0.0,    0.1,  999.0,  999.0,  999.0,  999.0,  999.0,  999.0,  999.0,    0.1,  999.0,  999.0,    0.0,   -0.0,  999.0,   -0.0,    0.1,   -0.1,   -0.8
1992/12/19 10:30,    0.1,    0.0,    0.0,   -0.1,   -0.0,   -0.0,   -0.2,   -0.6,   -0.6,   -0.4,   -0.2,   -0.2,   -0.2,    0.0,   -0.6,   -0.2,   -0.5,   -0.3,   -0.2,   -0.1,    0.4,    0.0,   -0.0,   -0.1,    0.0,    0.1,   -0.2,   -0.1,   -0.0,    0.0,   -0.1,    0.2,    0.1,    0.1,    0.1,    0.6,    0.1,   -0.4,   -0.1,   -0.2,   -0.0,   -0.3,   -0.2,    0.1,    0.1,   -0.2,    0.3,    0.1,    0.0,    0.2,    0.0,    0.6,    0.2,    0.1,   -0.1,    0.2,    0.2,   -1.0
1992/12/19 10:40,    0.2,    0.2,   -0.2,   -0.2,   -0.1,    0.0,   -0.1,   -0.3,    0.3,    0.1,   -0.4,  999.0,   -0.6,    0.3,   -0.3,   -0.1,    0.2,   -0.6,    0.0,   -0.2,   -0.2,    0.1,    0.0,    0.1,    0.1,    0.1,   -0.0,   -0.1,    0.0,   -0.1,   -0.1,   -0.0,    0.0,  999.0,  999.0,    0.1,    0.0,   -0.0,    0.2,   -0.2,    0.1,   -0.1,   -0.1,   -0.1,   -0.0,    0.2,    0.1,    0.2,    0.1,   -0.1,   -0.0,    0.0,   -0.1,    0.0,    0.0,    0.2,   -0.1,   -0.0
1992/12/19 10:50,   -0.0,    0.1,    0.2,    0.2,    0.0,    0.1,   -0.2,   -0.2,   -0.0,   -0.2,   -0.1,    0.1,   -0.3,    0.1,   -0.0,  999.0,  999.0,    0.1,  999.0,  999.0,  999.0,  999.0,    1.0,    1.0,  999.0,  999.0,  999.0,  999.0,  999.0,   -0.0,    0.1,  999.0,  999.0,  999.0,  999.0,  999.0,  999.0,  999.0,  999.0,  999.0,  999.0,  999.0,  999.0,  999.0,  999.0,  999.0,  999.0,  999.0,  999.0,  999.0,  999.0,    0.5,  999.0,   -0.0,  999.0,  999.0,  999.0,  999.0
1992/12/19 11:00,    0.0,   -0.0,   -0.1,   -0.1,    0.0,   -0.1,   -0.1,   -0.0,    0.0,   -0.3,   -0.4,    0.6,  999.0,    0.1,    0.3,   -0.8,  999.0,  999.0,   -0.0,   -0.6,  999.0,    0.0,  999.0,  999.0,   -0.1,  999.0,  999.0,  999.0,  999.0,  999.0,  999.0,  999.0,  999.0,  999.0,  999.0,  999.0,  999.0,  999.0,  999.0,  999.0,  999.0,  999.0,  999.0,  999.0,  999.0,  999.0,  999.0,  999.0,   -0.0,   -0.0,  999.0,  999.0,  999.0,  999.0,  999.0,  999.0,  999.0,  999.0
1992/12/19 11:10,    0.1,    0.1,    0.1,    0.0,    0.0,    0.0,    0.1,    0.2,    0.8,    0.2,    0.2,    0.4,  999.0,  999.0,   -0.2,  999.0,  999.0,    0.2,  999.0,  999.0,  999.0,  999.0,   -0.5,   -0.3,  999.0,   -0.3,  999.0,  999.0,  999.0,  999.0,  999.0,  999.0,  999.0,  999.0,  999.0,  999.0,  999.0,  999.0,  999.0,  999.0,  999.0,    0.1,  999.0,  999.0,  999.0,  999.0,  999.0,  999.0,  999.0,  999.0,  999.0,  999.0,  999.0,  999.0,  999.0,  999.0,  999.0,  999.0
1992/12/19 11:20,    0.1,   -0.0,    0.3,    0.2,    0.2,   -0.1,   -0.2,   -0.0,    0.2,   -0.0,   -0.3,    0.1,    0.2,    0.0,   -0.7,   -0.0,   -0.4,   -0.4,    0.3,    0.4,   -0.1,    0.0,    0.2,  999.0,   -0.5,   -0.2,  999.0,  999.0,  999.0,  999.0,  999.0,  999.0,  999.0,  999.0,  999.0,  999.0,  999.0,  999.0,  999.0,  999.0,  999.0,  999.0,  999.0,  999.0,  999.0,  999.0,  999.0,  999.0,   -0.0,  999.0,   -0.0,    0.9,  999.0,  999.0,  999.0,  999.0,  999.0,  999.0
1992/12/19 11:30,    0.0,    0.1,    0.0,    0.1,    0.2,    0.0,    0.2,    0.1,   -0.4,   -0.4,   -0.3,   -0.1,   -0.2,    0.1,   -0.2,   -0.4,    0.1,  999.0,   -0.2,   -0.9,    0.3,  999.0,  999.0,    0.1,  999.0,  999.0,  999.0,  999.0,  999.0,   -0.1,   -0.0,   -0.0,  999.0,  999.0,  999.0,  999.0,  999.0,  999.0,    0.7,  999.0,  999.0,  999.0,  999.0,    0.1,  999.0,  999.0,  999.0,    0.1,  999.0,    0.1,  999.0,   -0.2,  999.0,  999.0,  999.0,  999.0,   -0.0,  999.0
1992/12/19 11:40,   -0.0,   -0.0,   -0.3,   -0.1,   -0.2,   -0.0,   -0.2,   -0.3,   -0.5,   -1.0,   -0.8,   -0.9,   -0.9,   -0.9,   -0.6,   -0.5,   -0.3,   -0.1,    0.2,    0.1,   -0.0,   -0.4,   -0.2,   -0.3,   -0.2,  999.0,  999.0,    0.1,  999.0,   -0.2,  999.0,  999.0,    0.2,  999.0,  999.0,   -0.1,    0.5,  999.0,    0.4,   -0.0,  999.0,  999.0,  999.0,  999.0,   -0.2,  999.0,  999.0,  999.0,   -0.1,  999.0,  999.0,   -0.1,  999.0,  999.0,  999.0,  999.0,  999.0,   -0.1
1992/12/19 11:50,   -0.0,   -0.1,   -0.3,   -0.2,   -0.3,   -0.4,   -0.2,   -0.1,    0.0,    0.2,    0.2,    0.1,   -0.3,   -0.5,   -0.6,   -0.6,   -0.7,   -0.7,   -0.2,   -0.2,   -0.3,   -0.3,    0.1,   -0.2,    0.1,    0.3,  999.0,  999.0,  999.0,  999.0,  999.0,  999.0,  999.0,  999.0,  999.0,  999.0,  999.0,  999.0,  999.0,  999.0,    0.1,  999.0,  999.0,  999.0,  999.0,  999.0,    0.1,    0.1,  999.0,  999.0,  999.0,   -0.1,  999.0,  999.0,    0.0,    0.1,    0.0,  999.0
1992/12/19 12:00,   -0.0,   -0.0,    0.1,   -0.0,    0.4,    0.0,    0.1,    0.1,    0.3,    0.2,    0.2,    0.1,   -0.3,   -0.4,   -0.6,   -0.4,   -0.3,    0.1,    0.6,    0.5,    0.1,    0.1,    0.1,    0.3,    0.1,    0.5,  999.0,  999.0,  999.0,  999.0,  999.0,  999.0,  999.0,  999.0,  999.0,  999.0,  999.0,  999.0,  999.0,  999.0,  999.0,  999.0,  999.0,  999.0,  999.0,  999.0,  999.0,  999.0,  999.0,  999.0,  999.0,  999.0,  999.0,  999.0,  999.0,  999.0,  999.0,  999.0
1992/12/19 12:10,    0.0,   -0.1,    0.0,    0.1,    0.4,    0.5,    0.4,    0.0,   -0.0,   -0.2,   -0.1,   -0.1,   -0.1,   -0.0,   -0.1,   -0.2,   -0.1,   -0.0,    0.1,    0.0,   -0.0,   -0.1,   -0.0,  999.0,  999.0,  999.0,   -0.2,   -0.0,   -0.1,  999.0,    0.1,    0.3,    0.2,  999.0,   -0.2,    1.3,  999.0,  999.0,  999.0,   -0.3,  999.0,   -0.5,  999.0,  999.0,  999.0,   -0.1,  999.0,   -0.3,   -0.2,  999.0,  999.0,  999.0,  999.0,   -1.2,  999.0,   -1.1,  999.0,   -0.3
1992/12/19 12:20,    0.1,    0.2,   -0.0,   -0.0,   -0.1,   -0.2,   -0.2,   -0.3,   -0.1,   -0.2,   -0.5,   -0.2,   -0.2,   -0.3,   -0.3,   -0.2,   -0.1,   -0.0,    0.1,   -0.1,   -0.0,   -0.2,    0.1,    0.0,   -0.2,   -0.0,    0.1,   -0.1,   -0.1,   -0.0,   -0.1,   -0.2,   -0.0,   -0.1,  999.0,   -0.1,    0.0,  999.0,   -0.0,   -0.1,  999.0,   -0.1,  999.0,    0.0,  999.0,    0.2,   -0.1,  999.0,  999.0,  999.0,  999.0,   -1.7,    0.1,   -0.1,    0.1,   -0.2,    0.1,   -0.5
1992/12/19 12:30,    0.0,    0.2,    0.1,    0.2,    0.1,    0.0,   -0.0,   -0.5,   -0.3,   -0.4,   -0.3,   -0.4,   -0.2,   -0.2,   -0.2,   -0.2,   -0.1,   -0.1,    0.5,   -0.1,   -0.2,   -0.2,    0.0,    0.0,    0.0,  999.0,    0.1,  999.0,  999.0,  999.0,  999.0,  999.0,  999.0,  999.0,  999.0,  999.0,  999.0,  999.0,  999.0,  999.0,  999.0,    0.1,  999.0,  999.0,  999.0,  999.0,  999.0,  999.0,  999.0,  999.0,  999.0,  999.0,  999.0,   -0.1,  999.0,  999.0,  999.0,   -0.4
1992/12/19 12:40,    0.0,   -0.1,   -0.0,    0.2,    0.1,   -0.2,   -0.1,   -0.1,   -0.3,   -0.0,  999.0,   -0.2,   -0.2,   -0.1,   -0.3,   -0.4,   -0.2,   -0.4,   -0.3,   -0.1,   -0.6,  999.0,   -0.1,   -0.1,   -0.6,   -0.1,  999.0,  999.0,  999.0,  999.0,  999.0,   -0.0,  999.0,  999.0,  999.0,  999.0,  999.0,  999.0,  999.0,    0.4,  999.0,  999.0,   -0.0,  999.0,  999.0,  999.0,  999.0,    0.1,  999.0,  999.0,   -0.0,  999.0,  999.0,  999.0,   -0.4,  999.0,  999.0,   -1.2
1992/12/19 12:50,    0.2,  999.0,    0.3,    0.3,    0.3,    0.3,    0.0,   -0.2,   -0.4,   -0.1,   -0.3,   -0.1,   -0.4,   -0.4,   -0.3,   -0.3,   -0.2,    0.1,   -0.2,   -0.1,   -0.2,  999.0,  999.0,   -0.1,    0.0,  999.0,    0.1,   -0.1,  999.0,  999.0,    0.1,  999.0,  999.0,  999.0,  999.0,   -0.0,  999.0,  999.0,  999.0,  999.0,  999.0,   -0.1,  999.0,  999.0,  999.0,  999.0,  999.0,  999.0,  999.0,  999.0,   -0.1,  999.0,  999.0,  999.0,   -1.4,   -0.8,   -1.2,   -1.3
1992/12/19 13:00,   -0.0,   -0.1,   -0.2,   -0.2,   -0.2,   -0.1,   -0.2,   -0.1,   -0.0,    0.1,    0.3,    0.3,   -0.0,    0.3,   -0.1,   -0.1,   -0.1,   -0.0,   -0.0,   -0.1,   -0.0,   -0.0,    0.1,    0.0,    0.1,   -0.1,    0.0,   -0.1,  999.0,  999.0,  999.0,    0.1,  999.0,    0.1,  999.0,  999.0,    0.2,  999.0,  999.0,  999.0,    0.1,   -0.0,   -0.0,    0.0,  999.0,    0.1,   -0.0,  999.0,    0.0,  999.0,    0.0,   -1.0,   -0.7,   -1.0,   -1.2,   -1.2,   -1.2,   -1.2
1992/12/19 13:10,    0.0,   -0.0,    0.2,   -0.1,   -0.2,   -0.4,   -0.4,   -0.3,   -0.1,    0.2,    0.1,   -0.3,   -0.0,    0.1,    0.0,    0.3,    0.1,   -0.0,    0.0,    0.1,   -0.1,   -0.3,  999.0,   -0.2,    0.1,  999.0,  999.0,  999.0,  999.0,  999.0,  999.0,   -0.2,  999.0,  999.0,    0.2,  999.0,  999.0,  999.0,  999.0,  999.0,  999.0,  999.0,  999.0,  999.0,  999.0,  999.0,  999.0,  999.0,    0.1,   -0.2,   -0.0,  999.0,   -1.3,   -0.4,   -0.9,   -1.1,   -1.1,   -1.1
1992/12/19 13:20,   -0.0,   -0.1,   -0.1,   -0.1,    0.1,   -0.2,   -0.4,   -0.1,    0.0,   -0.0,   -0.3,   -0.2,   -0.2,   -0.4,   -0.5,   -0.3,   -0.2,   -0.3,   -0.4,   -0.3,   -0.3,  999.0,    0.2,  999.0,   -0.1,    0.1,  999.0,  999.0,  999.0,  999.0,  999.0,  999.0,  999.0,  999.0,  999.0,  999.0,  999.0,  999.0,  999.0,  999.0,  999.0,  999.0,  999.0,  999.0,  999.0,   -0.1,   -0.3,   -0.2,  999.0,  999.0,   -0.1,   -0.4,  999.0,   -0.9,   -0.9,   -1.0,   -1.0,   -1.0
1992/12/19 13:30,    0.0,    0.1,    0.0,    0.0,    0.0,   -0.1,   -0.1,   -0.2,   -0.2,   -0.0,    0.0,   -0.3,   -0.1,    0.1,   -0.2,   -0.4,   -0.3,   -0.2,   -0.2,   -0.3,   -0.1,   -0.4,   -0.3,   -0.2,  999.0,  999.0,  999.0,  999.0,  999.0,  999.0,   -0.0,  999.0,  999.0,  999.0,  999.0,  999.0,  999.0,  999.0,  999.0,  999.0,   -0.3,  999.0,  999.0,  999.0,  999.0,   -0.4,   -0.1,  999.0,   -0.4,   -0.4,   -0.4,   -0.5,   -1.1,   -1.2,   -1.2,   -1.1,   -1.1,   -0.9
1992/12/19 13:40,    0.0,    0.2,   -0.0,    0.2,   -0.2,   -0.2,   -0.8,   -0.9,  999.0,  999.0,  999.0,   -0.9,   -0.5,   -0.8,  999.0,   -0.3,   -0.3,   -0.1,   -0.0,   -0.0,    0.1,   -0.1,    0.1,  999.0,  999.0,    0.2,  999.0,  999.0,  999.0,  999.0,  999.0,    0.2,  999.0,  999.0,  999.0,  999.0,  999.0,  999.0,   -1.0,  999.0,    0.1,  999.0,  999.0,    0.1,  999.0,    0.2,    0.2,    0.0,  999.0,  999.0,  999.0,   -0.8,   -1.0,   -0.9,   -1.0,   -1.0,   -1.0,   -1.0
1992/12/19 13:50,    0.1,    0.6,    0.1,    0.0,    0.0,    0.0,   -0.3,   -0.1,    0.0,   -0.0,    0.1,    0.2,    0.2,    0.2,   -0.1,    0.0,   -0.0,    0.1,    0.1,    0.1,    0.1,   -0.0,    0.0,   -0.0,   -0.1,   -0.1,    0.0,   -0.1,   -0.1,    0.0,   -0.1,   -0.1,   -0.1,    0.1,    0.1,   -0.0,    0.1,   -0.2,    0.0,   -0.2,    0.0,    0.0,    0.0,   -0.0,   -0.1,    0.0,    0.2,   -0.0,   -0.7,   -0.3,   -1.2,   -0.8,   -1.0,   -1.1,   -1.0,   -1.2,   -1.0,   -1.2
1992/12/19 14:00,    0.0,   -0.1,    0.0,    0.0,    0.0,   -0.1,   -0.3,   -0.3,   -0.3,   -0.4,   -0.3,   -0.3,   -0.6,  999.0,  999.0,   -0.5,   -0.1,   -0.4,   -0.3,   -0.4,   -0.0,   -0.0,   -0.0,   -0.2,   -0.4,  999.0,    0.0,  999.0,  999.0,  999.0,  999.0,  999.0,   -0.4,  999.0,  999.0,  999.0,  999.0,  999.0,  999.0,  999.0,  999.0,  999.0,  999.0,   -0.1,   -0.1,   -0.2,   -0.3,   -0.5,   -1.0,   -1.1,   -1.4,   -1.5,   -1.3,   -1.3,   -1.3,   -1.3,   -1.3,   -1.3
1992/12/19 14:10,   -0.0,    0.0,   -0.3,   -0.2,   -0.3,   -0.2,   -0.2,   -0.2,   -0.2,   -0.2,  999.0,   -0.2,    0.1,    0.1,  999.0,  999.0,    0.0,   -0.1,   -0.1,   -0.1,   -0.1,   -0.1,    0.0,   -0.1,    0.1,  999.0,  999.0,   -1.0,  999.0,  999.0,  999.0,  999.0,  999.0,  999.0,  999.0,  999.0,  999.0,  999.0,  999.0,  999.0,  999.0,  999.0,  999.0,   -0.4,   -0.1,   -0.4,   -0.3,   -0.9,   -1.1,   -1.3,   -1.3,   -1.3,   -1.3,   -1.3,   -1.2,   -1.2,   -1.2,   -1.2
1992/12/19 14:20,   -0.0,   -0.5,    0.0,    0.1,    0.1,   -0.2,    0.3,    0.1,  999.0,   -0.2,  999.0,    0.5,    0.3,   -0.0,    0.0,    0.6,    0.4,  999.0,   -0.0,   -0.1,   -0.2,   -0.2,   -0.3,   -0.2,   -0.0,  999.0,  999.0,  999.0,  999.0,  999.0,  999.0,  999.0,  999.0,  999.0,  999.0,  999.0,  999.0,  999.0,   -0.6,  999.0,  999.0,  999.0,   -0.1,  999.0,   -0.3,  999.0,   -1.0,   -0.8,   -0.9,   -0.7,   -0.9,   -1.1,   -1.1,   -1.0,   -1.0,   -1.0,   -1.0,   -1.1
1992/12/19 14:30,    0.0,   -0.1,   -0.3,    0.0,    0.1,    0.1,   -0.1,   -0.0,   -0.3,  999.0,   -0.6,  999.0,  999.0,    0.1,   -0.1,  999.0,   -0.4,    0.5,   -0.0,   -0.1,   -0.4,   -0.5,   -0.5,   -0.2,   -0.3,  999.0,  999.0,  999.0,  999.0,  999.0,  999.0,  999.0,  999.0,  999.0,   -0.1,  999.0,  999.0,  999.0,  999.0,  999.0,  999.0,  999.0,   -0.2,   -0.4,    0.0,    0.1,    0.1,   -0.2,   -0.2,   -0.8,  999.0,  999.0,   -1.5,   -1.0,   -1.1,  999.0,   -1.1,  999.0
1992/12/19 14:40,   -0.1,   -0.0,    0.1,    0.1,    0.3,   -0.4,   -0.6,   -0.0,    0.2,   -0.4,  999.0,   -1.1,   -0.6,   -1.0,   -0.6,   -0.4,   -0.0,   -0.1,   -0.5,   -0.3,   -0.6,   -0.0,    0.0,    0.0,    0.0,   -0.8,  999.0,  999.0,  999.0,  999.0,  999.0,  999.0,  999.0,  999.0,  999.0,  999.0,  999.0,  999.0,  999.0,  999.0,  999.0,  999.0,  999.0,   -0.5,  999.0,   -0.1,   -0.0,  999.0,   -0.2,   -0.2,  999.0,  999.0,  999.0,  999.0,   -1.0,  999.0,  999.0,  999.0
1992/12/19 14:50,    0.1,   -0.2,    0.0,   -0.0,   -0.1,   -0.0,   -0.7,   -0.4,   -1.2,   -1.5,   -1.0,   -1.1,   -1.2,   -0.7,   -1.1,   -0.1,   -0.1,   -0.0,   -0.0,    0.2,    0.1,    0.1,    0.1,    0.1,   -0.1,    0.0,   -0.0,  999.0,  999.0,  999.0,  999.0,  999.0,  999.0,  999.0,  999.0,  999.0,  999.0,  999.0,  999.0,  999.0,  999.0,  999.0,  999.0,  999.0,  999.0,  999.0,  999.0,  999.0,    0.0,    0.3,    0.8,  999.0,  999.0,  999.0,   -0.0,  999.0,  999.0,  999.0
1992/12/19 15:00,    0.0,    0.1,    0.0,   -0.2,   -0.3,   -0.1,   -0.0,   -0.0,   -0.4,   -0.4,   -0.6,   -1.1,    0.5,   -1.1,   -1.1,   -0.0,   -0.2,  999.0,   -0.4,   -0.1,   -0.0,   -0.0,   -0.3,   -0.2,   -0.3,   -0.1,  999.0,  999.0,  999.0,  999.0,  999.0,  999.0,  999.0,  999.0,  999.0,   -0.8,  999.0,  999.0,  999.0,  999.0,  999.0,  999.0,  999.0,  999.0,  999.0,  999.0,  999.0,  999.0,  999.0,    0.1,    0.1,    0.0,  999.0,  999.0,   -1.1,   -1.0,   -1.3,   -1.5
1992/12/19 15:10,    0.1,    0.1,    0.1,    0.3,    0.1,   -0.1,   -0.0,   -0.1,   -0.5,   -0.4,   -0.3,   -0.2,   -1.1,  999.0,  999.0,  999.0,   -0.6,   -0.0,    0.1,    0.0,    0.1,    0.1,    0.2,    0.2,    0.2,    0.2,    0.0,    0.0,  999.0,   -0.0,   -0.1,  999.0,  999.0,  999.0,  999.0,    0.0,  999.0,    0.1,   -0.0,  999.0,   -0.0,  999.0,  999.0,  999.0,    0.2,    0.0,  999.0,    0.0,    0.1,    0.0,   -0.3,   -0.3,   -0.7,   -0.8,   -1.2,   -1.3,   -1.2,   -1.2
1992/12/19 15:20,   -0.1,   -0.1,   -0.0,    0.0,    0.1,   -0.0,   -0.0,   -0.1,   -0.2,   -0.0,   -0.6,   -0.8,  999.0,  999.0,   -0.2,   -0.4,   -0.5,   -0.3,  999.0,   -0.5,  999.0,    0.0,   -0.0,   -0.0,    0.0,    0.1,    0.3,  999.0,  999.0,  999.0,  999.0,    0.4,   -0.1,    0.3,   -0.2,   -0.1,  999.0,  999.0,  999.0,  999.0,  999.0,   -0.1,  999.0,  999.0,  999.0,  999.0,    0.1,    0.6,  999.0,   -0.3,   -0.3,   -0.4,  999.0,   -1.1,   -1.2,   -1.4,   -1.4,   -1.4
1992/12/19 15:30,    0.6,    0.1,   -0.0,    0.0,    0.0,   -0.1,   -0.1,   -0.2,   -0.3,   -0.6,   -0.3,   -0.1,   -0.2,   -0.1,   -0.3,   -0.1,   -0.3,   -0.2,   -0.4,    0.1,   -0.1,   -0.1,   -0.3,    0.2,   -0.4,   -0.3,  999.0,   -0.1,   -0.3,   -0.1,  999.0,   -0.2,   -0.1,   -0.0,    0.1,  999.0,   -0.2,    0.1,   -0.0,   -0.2,  999.0,    0.0,   -0.2,    0.2,    0.0,  999.0,   -0.2,    0.1,  999.0,  999.0,   -0.1,    0.2,  999.0,   -0.4,    0.3,   -0.5,   -0.8,   -1.1
1992/12/19 15:40,   -0.1,    0.2,    0.0,   -0.1,   -0.1,    0.0,    0.1,   -0.6,   -0.2,   -0.2,   -0.1,    0.3,  999.0,   -0.0,    0.1,  999.0,    0.1,   -0.3,   -0.1,   -0.2,   -0.0,    0.2,   -0.0,   -0.1,    0.0,    0.1,   -0.0,    0.1,  999.0,  999.0,    0.5,    0.2,  999.0,  999.0,  999.0,  999.0,  999.0,  999.0,    0.0,   -0.2,  999.0,  999.0,  999.0,    0.0,  999.0,  999.0,  999.0,   -0.2,  999.0,    0.1,    0.2,  999.0,  999.0,  999.0,   -1.2,   -1.1,   -1.2,   -1.2
1992/12/19 15:50,    0.1,    0.2,    0.0,   -0.0,   -0.1,   -0.2,   -0.1,   -0.0,   -0.3,   -0.1,  999.0,    0.0,   -0.1,  999.0,    0.1,  999.0,    0.1,   -1.0,  999.0,  999.0,    0.4,    0.0,  999.0,   -0.0,    0.1,    0.1,   -0.0,    0.1,    0.1,   -0.0,  999.0,  999.0,   -0.2,    0.1,  999.0,  999.0,    0.1,  999.0,   -0.8,  999.0,  999.0,  999.0,  999.0,  999.0,  999.0,  999.0,  999.0,  999.0,  999.0,  999.0,  999.0,   -0.0,  999.0,   -1.2,   -1.1,   -1.1,   -1.3,   -1.2
1992/12/19 16:00,    0.1,   -0.1,   -0.2,   -0.1,   -0.2,   -0.1,   -0.2,    0.1,    0.1,   -0.1,    0.0,    0.1,    0.1,  999.0,   -0.7,  999.0,   -0.0,  999.0,  999.0,  999.0,   -0.7,   -0.4,   -0.5,   -0.3,   -0.3,   -0.5,   -0.1,    0.2,  999.0,  999.0,  999.0,  999.0,  999.0,  999.0,  999.0,  999.0,  999.0,  999.0,  999.0,  999.0,  999.0,   -0.4,  999.0,  999.0,   -0.2,  999.0,  999.0,   -1.2,  999.0,  999.0,   -1.5,  999.0,  999.0,  999.0,  999.0,   -1.0,  999.0,  999.0
1992/12/19 16:10,   -0.1,    0.2,   -0.0,   -0.1,   -0.1,    0.0,   -0.1,    0.1,   -0.4,    0.3,    0.3,    0.1,    0.3,    0.2,    0.0,    0.1,    0.0,    0.0,    0.3,   -0.0,   -0.1,    0.1,   -0.1,   -0.3,   -0.4,   -0.2,   -0.0,   -0.1,   -0.0,  999.0,  999.0,    0.7,    0.4,  999.0,   -0.0,   -0.0,  999.0,  999.0,  999.0,  999.0,  999.0,   -0.2,   -0.2,    0.2,    0.0,    0.0,    0.0,  999.0,    0.2,    0.0,  999.0,   -0.3,   -0.0,  999.0,   -0.7,    0.1,    0.0,  999.0
1992/12/19 16:20,    0.1,   -0.1,   -0.1,   -0.1,   -0.2,   -0.1,   -0.2,    0.0,   -0.0,   -0.1,    0.0,  999.0,    0.2,  999.0,    0.4,   -0.0,    0.0,    0.0,    0.2,   -0.3,    0.0,   -0.1,   -0.0,   -0.3,   -0.0,   -0.9,   -0.1,    0.1,    0.1,  999.0,  999.0,   -0.0,  999.0,  999.0,  999.0,  999.0,  999.0,  999.0,  999.0,  999.0,  999.0,  999.0,   -0.0,    0.0,  999.0,  999.0,  999.0,   -0.1,  999.0,  999.0,   -0.3,   -0.3,  999.0,  999.0,  999.0,  999.0,  999.0,  999.0
1992/12/19 16:30,   -0.2,   -0.1,   -0.1,   -0.2,   -0.2,  999.0,   -0.2,   -0.1,   -0.1,    0.2,   -0.2,    0.0,    0.1,   -0.3,   -0.1,   -0.1,   -0.1,   -0.1,   -0.0,    0.0,    0.0,    0.2,    0.1,   -0.0,   -0.2,   -0.5,   -0.1,    0.0,   -0.2,   -0.1,    0.2,   -0.1,   -0.1,  999.0,  999.0,    0.0,  999.0,    0.1,  999.0,   -0.0,    0.0,   -0.1,   -0.0,  999.0,  999.0,   -0.0,  999.0,   -0.0,    0.1,   -0.0,    0.1,    0.0,   -0.0,    0.5,  999.0,  999.0,   -0.1,   -0.1
1992/12/19 16:40,    0.0,    0.1,   -0.0,    0.0,   -0.0,   -0.1,   -0.1,   -0.2,   -0.1,   -0.1,   -0.1,   -0.0,   -0.0,    0.0,   -0.0,    0.2,    0.3,    0.2,    0.0,   -0.2,   -0.3,   -0.1,   -0.2,   -0.3,   -0.5,   -0.5,   -0.3,   -0.0,   -0.1,   -0.0,    0.1,    0.1,    0.0,  999.0,  999.0,    0.0,  999.0,    0.3,  999.0,  999.0,   -0.0,   -0.1,   -0.1,  999.0,  999.0,  999.0,  999.0,  999.0,   -0.1,    0.0,    0.0,  999.0,   -0.0,  999.0,  999.0,  999.0,  999.0,    0.0
1992/12/19 16:50,    0.1,    0.6,    0.3,    0.2,    0.2,    0.1,   -0.0,    0.1,    0.1,   -0.2,   -0.1,   -0.1,    0.0,   -0.1,   -0.1,   -0.4,   -0.1,   -0.1,   -0.1,    0.1,    0.1,   -0.1,   -0.1,   -0.0,   -0.1,   -0.1,   -0.1,    0.1,   -0.0,   -0.1,   -0.1,    0.1,    0.1,    0.1,    0.1,    0.1,   -0.1,  999.0,  999.0,    0.0,  999.0,    0.1,    0.1,    0.1,   -0.3,   -0.2,  999.0,    0.1,    0.1,    0.1,    0.1,    0.2,    0.0,    0.1,  999.0,  999.0,  999.0,   -0.0
1992/12/19 17:00,    0.1,   -0.2,   -0.1,   -0.1,    0.0,    0.1,    0.1,    0.3,    0.3,   -0.2,   -0.1,   -0.1,   -0.3,   -0.4,   -0.2,   -0.1,    0.0,   -0.0,   -0.3,    0.1,   -0.0,   -0.2,   -0.0,  999.0,  999.0,   -0.3,   -0.1,   -0.3,   -0.3,  999.0,   -0.1,  999.0,  999.0,  999.0,  999.0,  999.0,  999.0,  999.0,  999.0,  999.0,  999.0,   -0.3,   -0.2,   -0.2,  999.0,   -0.1,  999.0,  999.0,  999.0,    0.1,    0.1,   -0.1,  999.0,    0.0,  999.0,  999.0,  999.0,  999.0
1992/12/19 17:10,   -0.1,    0.1,    0.8,   -0.1,   -0.2,    0.3,    0.2,    0.0,   -0.0,    0.1,    0.3,    0.2,    0.0,    0.2,    0.2,    0.2,    0.0,   -0.1,   -0.1,   -0.3,   -0.4,   -0.4,   -0.3,   -0.3,    0.0,   -0.1,   -1.0,   -0.7,   -0.8,   -0.6,   -0.2,  999.0,  999.0,  999.0,    0.1,   -0.0,   -0.1,   -0.5,  999.0,  999.0,  999.0,  999.0,  999.0,   -0.1,  999.0,  999.0,  999.0,  999.0,    0.2,  999.0,    0.1,    0.1,    0.1,  999.0,  999.0,  999.0,  999.0,  999.0
1992/12/19 17:20,   -0.1,   -0.1,    0.2,    0.3,    0.5,    0.6,    0.2,    0.2,    0.2,   -0.1,   -0.0,  999.0,    0.1,   -0.1,    0.3,    0.2,    0.1,    0.3,    0.3,    0.1,   -0.0,    0.1,   -0.0,    0.0,    0.2,   -0.1,   -0.1,    0.0,    0.1,  999.0,  999.0,  999.0,   -0.7,  999.0,  999.0,   -0.2,  999.0,  999.0,  999.0,  999.0,   -0.2,  999.0,   -0.1,   -0.3,   -0.2,  999.0,  999.0,  999.0,   -0.2,   -0.5,   -0.2,   -0.0,  999.0,  999.0,  999.0,  999.0,  999.0,  999.0
1992/12/19 17:30,   -0.2,    0.4,   -0.1,    0.1,    0.1,   -0.1,   -0.3,    0.1,    0.0,    0.0,    0.0,   -0.2,   -0.3,   -0.2,   -0.1,   -0.0,   -0.2,  999.0,    0.1,    0.0,    0.0,    0.1,    0.1,    0.1,  999.0,    0.0,   -0.1,    0.0,   -0.2,  999.0,  999.0,   -0.2,   -0.3,   -0.0,   -0.1,   -0.2,   -0.4,  999.0,  999.0,   -0.4,   -0.1,    0.0,   -0.1,   -0.1,  999.0,  999.0,  999.0,    0.3,    0.3,  999.0,   -0.1,  999.0,  999.0,   -0.1,  999.0,    0.1,  999.0,  999.0
1992/12/19 17:40,    0.2,    0.8,    0.8,    0.4,    0.5,    0.2,    0.2,    0.0,    0.0,    0.1,    0.1,   -0.1,    0.1,   -0.4,    0.1,    0.1,    0.1,    0.0,   -0.1,    0.2,   -0.0,   -0.2,   -0.2,  999.0,   -0.5,   -0.3,   -0.3,  999.0,  999.0,  999.0,   -0.4,    0.5,   -0.0,  999.0,    0.4,  999.0,  999.0,  999.0,    0.1,  999.0,  999.0,    0.5,  999.0,  999.0,  999.0,  999.0,  999.0,  999.0,  999.0,    0.3,  999.0,  999.0,  999.0,  999.0,  999.0,  999.0,  999.0,  999.0
1992/12/19 17:50,    0.3,    0.5,    0.2,    0.6,    0.7,    0.7,    0.1,   -0.1,    0.2,    0.1,   -0.2,   -0.1,    0.0,    0.1,    0.1,    0.2,   -0.0,    0.0,    0.2,   -0.1,   -0.2,   -0.1,   -0.1,  999.0,  999.0,   -0.1,  999.0,   -0.2,  999.0,  999.0,   -0.1,    0.4,  999.0,  999.0,  999.0,  999.0,  999.0,    0.0,  999.0,  999.0,   -0.0,  999.0,   -0.1,  999.0,    0.2,  999.0,  999.0,  999.0,  999.0,  999.0,  999.0,  999.0,  999.0,  999.0,  999.0,  999.0,    0.9,  999.0
1992/12/19 18:00,    0.2,    0.7,    0.6,    0.2,    0.3,   -0.2,   -0.0,    0.0,    0.1,    0.1,    0.2,    0.1,    0.2,    0.2,    0.2,    0.2,    0.1,   -0.1,    0.0,   -0.1,    0.1,  999.0,  999.0,  999.0,    0.8,    0.1,  999.0,  999.0,   -0.1,  999.0,   -0.1,    0.1,  999.0,  999.0,  999.0,    0.0,  999.0,  999.0,  999.0,  999.0,    0.0,  999.0,  999.0,  999.0,  999.0,  999.0,  999.0,   -0.0,   -0.1,   -0.1,  999.0,  999.0,  999.0,  999.0,  999.0,  999.0,  999.0,  999.0
1992/12/19 18:10,  999.0,    0.6,    0.2,    0.1,    0.2,    0.2,    0.2,    0.2,    0.2,    0.0,  999.0,    0.1,   -0.1,   -0.0,  999.0,  999.0,    0.0,  999.0,  999.0,    0.2,  999.0,  999.0,  999.0,    0.3,  999.0,   -0.0,   -0.1,  999.0,  999.0,  999.0,  999.0,  999.0,  999.0,  999.0,  999.0,  999.0,  999.0,  999.0,  999.0,  999.0,  999.0,  999.0,  999.0,  999.0,  999.0,  999.0,  999.0,   -0.1,   -0.1,   -0.3,  999.0,  999.0,  999.0,  999.0,  999.0,  999.0,  999.0,  999.0
1992/12/19 18:20,    1.0,    0.2,   -0.1,   -0.0,   -0.1,    0.0,   -0.1,   -0.2,   -0.2,   -0.1,    0.1,   -0.2,   -0.1,   -0.2,   -0.1,   -0.3,    0.1,    0.0,   -0.2,   -0.1,   -0.1,  999.0,  999.0,   -0.0,  999.0,   -0.1,   -0.0,   -0.0,  999.0,  999.0,  999.0,  999.0,  999.0,  999.0,  999.0,  999.0,   -0.1,  999.0,  999.0,   -0.0,  999.0,   -0.0,   -0.0,    0.0,  999.0,  999.0,  999.0,   -0.1,   -0.0,   -0.2,  999.0,    0.2,  999.0,  999.0,    0.0,  999.0,  999.0,    0.0
1992/12/19 18:30,   -0.0,   -0.5,   -0.3,   -0.3,   -0.3,    0.1,    0.0,    0.2,    0.3,    0.2,   -0.1,   -0.1,   -0.1,   -0.3,   -0.2,   -0.4,   -0.4,   -0.5,   -0.3,   -0.1,   -0.1,  999.0,  999.0,  999.0,  999.0,    0.1,  999.0,  999.0,  999.0,    0.2,    0.3,  999.0,  999.0,  999.0,  999.0,  999.0,  999.0,  999.0,  999.0,  999.0,  999.0,  999.0,  999.0,  999.0,  999.0,  999.0,  999.0,   -0.4,  999.0,  999.0,  999.0,   -0.4,  999.0,  999.0,  999.0,  999.0,  999.0,  999.0
1992/12/19 18:40,    0.4,    1.1,  999.0,    0.5,    0.4,    0.5,   -0.0,   -0.3,    0.0,    0.2,   -0.1,   -0.3,   -0.3,   -0.1,   -0.1,   -0.0,   -0.3,   -0.2,   -0.2,   -0.3,   -0.2,   -0.2,  999.0,  999.0,  999.0,    0.1,  999.0,  999.0,  999.0,   -0.7,   -0.0,   -0.1,   -0.1,   -0.1,  999.0,  999.0,  999.0,  999.0,    0.0,  999.0,  999.0,   -0.1,    0.0,  999.0,  999.0,  999.0,  999.0,  999.0,  999.0,  999.0,  999.0,   -0.4,  999.0,   -0.4,  999.0,   -0.4,   -0.4,   -0.4
1992/12/19 18:50,   -0.2,  999.0,    0.3,  999.0,   -0.5,   -0.8,    0.7,    0.2,   -0.0,   -0.4,    0.2,   -0.5,   -0.0,    0.3,    0.3,    0.4,   -0.0,    0.1,    0.1,   -0.0,   -0.2,   -0.2,   -0.1,   -0.0,    0.0,   -0.4,    0.7,  999.0,    0.2,  999.0,    0.2,    0.1,  999.0,  999.0,  999.0,  999.0,  999.0,   -0.1,  999.0,  999.0,  999.0,   -0.0,  999.0,  999.0,  999.0,   -0.1,  999.0,   -0.2,  999.0,  999.0,  999.0,   -0.2,   -0.3,  999.0,  999.0,  999.0,  999.0,  999.0
1992/12/19 19:00,    0.2,  999.0,  999.0,   -0.7,    0.3,    0.1,    0.2,    0.6,    0.2,    0.5,    0.2,   -0.1,   -0.1,    0.1,    0.1,    0.2,    0.0,    0.0,    0.0,   -0.2,   -0.1,   -0.1,   -0.1,   -0.2,   -0.2,   -0.5,   -0.2,   -0.1,   -0.5,   -0.4,   -0.1,   -0.3,  999.0,  999.0,    0.0,  999.0,  999.0,  999.0,  999.0,  999.0,  999.0,    0.2,    0.0,  999.0,    0.0,  999.0,   -0.1,  999.0,  999.0,  999.0,  999.0,   -0.1,  999.0,  999.0,  999.0,  999.0,  999.0,  999.0
1992/12/19 19:10,   -0.2,   -0.0,   -0.1,    0.3,    0.2,   -0.1,   -0.5,  999.0,    0.1,  999.0,   -0.5,    0.1,    0.0,    0.2,    0.3,    0.1,   -0.0,    0.4,    0.1,    0.4,    0.3,    0.2,    0.4,    0.1,    0.2,    0.2,    0.5,  999.0,    0.3,  999.0,  999.0,  999.0,  999.0,  999.0,  999.0,  999.0,  999.0,  999.0,  999.0,  999.0,  999.0,   -0.1,   -0.1,  999.0,  999.0,   -0.4,   -0.1,  999.0,  999.0,  999.0,  999.0,  999.0,   -0.1,   -0.1,  999.0,   -0.1,  999.0,   -0.1
1992/12/19 19:20,   -0.2,    0.5,    1.1,    0.5,    0.1,   -0.0,   -0.1,   -0.1,   -0.6,    0.6,   -0.1,   -0.1,    0.2,   -0.0,   -0.3,   -0.4,   -0.4,   -0.1,   -0.0,   -0.4,   -0.5,   -0.5,   -0.5,   -0.6,  999.0,   -0.6,   -0.3,   -0.5,   -0.4,  999.0,  999.0,  999.0,  999.0,  999.0,  999.0,  999.0,  999.0,   -0.4,   -0.1,  999.0,  999.0,   -0.3,   -0.1,   -0.2,   -0.1,   -0.0,    0.1,  999.0,   -0.2,  999.0,  999.0,  999.0,  999.0,  999.0,  999.0,  999.0,    0.5,  999.0
1992/12/19 19:30,   -0.2,   -0.2,    0.2,    0.4,    0.2,   -0.4,    0.1,    0.1,   -0.1,    0.3,    0.3,    0.7,    0.2,    0.0,    0.1,    0.0,   -0.0,    0.2,    0.1,   -0.1,   -0.2,    0.2,    0.1,   -0.2,    0.3,    0.1,    0.0,   -0.1,   -0.0,    0.2,   -0.3,   -0.2,   -0.0,   -0.0,  999.0,  999.0,  999.0,  999.0,  999.0,    0.2,  999.0,   -0.1,  999.0,   -0.2,   -0.2,   -0.3,    0.1,  999.0,  999.0,  999.0,  999.0,  999.0,  999.0,  999.0,  999.0,    0.0,  999.0,  999.0
1992/12/19 19:40,    0.1,    0.2,    0.2,    0.5,   -0.1,   -0.6,   -0.1,    0.0,    0.2,   -0.1,    0.2,    0.4,    0.2,    0.2,  999.0,  999.0,    0.2,   -0.3,   -0.3,  999.0,  999.0,  999.0,  999.0,  999.0,  999.0,   -0.9,  999.0,   -0.1,   -0.1,   -0.1,   -0.1,   -0.1,    0.0,   -0.5,  999.0,  999.0,  999.0,  999.0,  999.0,   -0.0,  999.0,  999.0,   -0.1,   -0.0,    0.0,   -0.1,   -0.1,  999.0,   -0.1,  999.0,  999.0,  999.0,  999.0,  999.0,  999.0,  999.0,  999.0,  999.0
1992/12/19 19:50,   -0.2,   -0.8,   -0.2,   -0.1,    0.1,    0.1,    0.3,    0.1,    0.2,   -0.1,   -0.1,    0.2,   -0.1,    0.1,   -0.1,   -0.1,    0.0,    0.2,    0.6,   -0.1,   -0.3,   -1.4,  999.0,  999.0,   -0.4,   -0.5,    0.2,    0.0,   -0.1,   -0.3,   -0.5,   -0.2,   -0.3,  999.0,  999.0,  999.0,   -0.2,  999.0,  999.0,  999.0,  999.0,  999.0,   -0.0,  999.0,   -0.1,   -0.1,   -0.1,  999.0,  999.0,  999.0,  999.0,    0.1,  999.0,  999.0,  999.0,    0.1,  999.0,  999.0
1992/12/19 20:00,   -0.1,    0.2,    0.0,   -0.1,   -0.1,   -0.1,    0.2,    0.2,   -0.2,  999.0,    0.1,   -0.1,    0.1,    0.5,    0.1,    0.6,  999.0,  999.0,    0.5,  999.0,   -0.5,   -0.2,  999.0,   -0.2,   -0.2,   -0.2,  999.0,    0.2,    0.1,   -0.2,   -0.1,   -0.4,    0.1,  999.0,    0.1,  999.0,  999.0,  999.0,    0.0,    0.0,  999.0,  999.0,   -0.4,    0.0,   -0.1,   -0.3,    0.0,  999.0,  999.0,  999.0,  999.0,  999.0,  999.0,  999.0,  999.0,  999.0,  999.0,  999.0
1992/12/19 20:10,   -0.0,   -0.9,    0.4,   -0.5,   -0.2,   -0.2,   -0.5,    0.1,   -0.3,    0.1,    0.1,  999.0,   -0.8,    0.1,    0.1,    0.2,    0.1,    0.3,    0.2,   -0.0,    0.0,   -0.0,  999.0,    0.1,   -0.1,  999.0,    0.1,  999.0,   -0.0,   -0.3,   -0.1,  999.0,   -0.7,   -0.5,   -0.2,   -0.1,   -0.2,   -0.1,  999.0,  999.0,   -0.1,   -0.1,  999.0,  999.0,    0.1,   -0.1,    0.1,    0.1,   -0.1,    0.0,  999.0,   -0.0,    0.2,    0.0,  999.0,    0.0,    0.0,    0.0
1992/12/19 20:20,   -0.0,   -1.0,   -0.1,  999.0,    0.4,    0.0,   -0.2,    0.2,   -0.1,   -0.1,   -0.2,   -0.6,   -0.8,    0.3,   -0.1,    0.1,    0.1,    0.0,    0.1,   -0.0,   -0.2,   -0.2,    0.2,    0.0,   -0.1,   -0.1,   -0.1,   -0.7,  999.0,  999.0,   -0.5,  999.0,  999.0,   -0.3,   -0.3,   -0.3,   -0.1,  999.0,   -0.4,  999.0,  999.0,  999.0,  999.0,  999.0,    0.0,   -0.0,   -0.0,   -0.1,  999.0,  999.0,  999.0,  999.0,  999.0,  999.0,  999.0,  999.0,    0.1,  999.0
1992/12/19 20:30,    0.2,   -0.2,    0.1,    0.0,   -0.2,   -0.1,   -0.0,   -0.2,   -0.2,   -0.0,    0.4,    0.2,    0.1,  999.0,    0.3,   -0.3,    0.0,    0.1,   -0.1,   -0.2,    0.2,    0.1,    0.1,    0.1,    0.1,   -0.0,    0.0,    0.2,   -0.1,   -0.1,   -0.0,    0.1,    0.0,    0.0,   -0.1,   -0.0,  999.0,    0.1,    0.1,   -0.0,   -0.0,    0.0,    0.0,    0.0,    0.2,   -0.0,    0.0,    0.1,    0.0,  999.0,    0.0,  999.0,    0.1,    0.1,    0.0,  999.0,    0.0,    0.0
1992/12/19 20:40,    0.9,    0.5,    0.3,    0.3,    0.1,   -0.0,    0.0,   -0.4,   -0.2,  999.0,  999.0,    0.3,    0.2,    0.5,    0.5,    0.2,   -0.2,    0.0,  999.0,   -0.0,   -0.1,   -0.1,   -0.1,   -0.2,   -0.2,   -0.3,   -0.0,  999.0,  999.0,   -0.1,  999.0,  999.0,  999.0,  999.0,   -0.1,   -0.1,   -0.0,    0.0,   -0.0,  999.0,  999.0,  999.0,  999.0,    0.0,   -0.1,  999.0,   -0.0,   -0.1,  999.0,  999.0,  999.0,    0.0,  999.0,  999.0,  999.0,  999.0,  999.0,  999.0
1992/12/19 20:50,   -0.1,   -0.1,    0.3,    0.7,    0.5,    0.4,    0.6,    0.5,    0.3,    0.0,   -0.0,    0.4,  999.0,  999.0,    0.3,    0.1,    0.4,  999.0,  999.0,    1.0,    0.2,    0.1,   -0.2,    0.1,    0.4,  999.0,   -0.0,  999.0,    0.7,  999.0,  999.0,  999.0,  999.0,  999.0,    0.0,   -0.2,    0.2,    0.2,   -0.0,  999.0,  999.0,  999.0,  999.0,    0.1,    0.1,   -0.1,    0.0,   -0.1,  999.0,    0.0,  999.0,  999.0,  999.0,  999.0,   -0.3,  999.0,  999.0,   -0.2
1992/12/19 21:00,   -0.2,    0.2,    0.3,    0.6,    0.1,   -0.1,    0.1,   -0.5,  999.0,  999.0,    0.8,    0.2,    0.5,    0.6,   -0.0,    0.2,    0.1,    0.1,   -0.2,  999.0,  999.0,   -0.1,   -0.3,   -0.4,   -0.2,    0.4,    0.1,    0.2,    0.3,  999.0,  999.0,  999.0,  999.0,  999.0,    0.0,    0.0,  999.0,    0.2,    0.1,   -0.0,  999.0,  999.0,  999.0,  999.0,    0.4,    0.1,    0.1,  999.0,  999.0,  999.0,  999.0,  999.0,  999.0,  999.0,   -0.1,   -0.1,  999.0,  999.0
1992/12/19 21:10,   -0.0,    0.2,   -0.8,    0.2,    0.1,   -0.1,   -0.5,   -0.0,   -0.5,   -1.0,  999.0,    0.2,    0.1,    0.0,   -0.2,    0.1,   -0.4,   -0.6,    0.3,    0.0,   -0.1,   -0.2,   -0.3,   -0.2,    0.0,   -0.4,   -0.0,    0.1,   -0.3,   -0.5,  999.0,  999.0,  999.0,  999.0,    0.0,  999.0,    0.4,    0.1,    0.3,    0.2,  999.0,  999.0,  999.0,  999.0,   -0.0,   -0.1,   -0.2,  999.0,  999.0,  999.0,  999.0,  999.0,  999.0,  999.0,   -0.1,  999.0,  999.0,  999.0
1992/12/19 21:20,    0.1,    0.1,    0.0,    0.1,   -0.1,   -0.1,    0.0,  999.0,   -0.4,   -0.2,   -0.5,  999.0,   -0.0,   -0.8,   -1.3,    0.2,   -0.3,   -0.3,  999.0,  999.0,  999.0,   -0.1,    0.0,   -0.0,   -0.1,   -0.2,   -0.0,    0.1,   -0.4,   -0.2,   -0.3,    0.2,  999.0,    0.5,  999.0,  999.0,  999.0,  999.0,    0.1,   -0.2,    0.1,   -0.2,  999.0,   -0.1,   -0.2,   -0.2,   -0.1,  999.0,  999.0,  999.0,  999.0,  999.0,   -0.9,  999.0,  999.0,  999.0,  999.0,  999.0
1992/12/19 21:30,   -0.1,    0.5,    0.1,    0.2,    0.1,    0.6,    0.5,    0.4,   -0.5,   -0.3,    0.3,  999.0,  999.0,  999.0,   -0.1,    0.0,  999.0,    1.7,  999.0,    0.0,   -0.2,   -0.3,   -0.4,   -0.3,   -0.3,   -0.4,   -0.6,   -1.2,   -1.3,   -1.4,   -1.3,   -1.1,   -1.2,   -1.3,   -0.9,   -0.3,  999.0,  999.0,   -0.1,  999.0,    0.0,    0.1,  999.0,   -0.1,    0.0,    0.1,    0.1,   -0.1,   -0.3,  999.0,  999.0,  999.0,  999.0,  999.0,  999.0,  999.0,  999.0,    0.1
1992/12/19 21:40,   -0.4,  999.0,  999.0,    0.4,   -0.0,    0.2,    0.2,   -0.0,   -0.2,   -0.1,    0.2,   -0.2,  999.0,  999.0,   -0.1,   -0.0,    0.1,   -0.1,    0.8,   -0.1,   -0.2,   -0.3,    0.1,    0.0,    0.0,    0.1,    0.2,   -0.0,    0.1,   -0.0,   -0.3,   -0.2,    0.0,    0.0,  999.0,  999.0,   -0.0,  999.0,    0.7,    0.0,    0.0,    0.0,    0.2,    0.0,  999.0,    0.1,    0.0,   -0.1,   -0.1,    0.0,  999.0,   -0.1,   -0.4,  999.0,  999.0,  999.0,  999.0,  999.0
1992/12/19 21:50,    0.1,   -0.3,   -0.0,    0.6,   -0.1,   -0.4,    0.3,    0.3,    0.1,   -0.1,   -0.1,    0.7,    1.7,    1.7,    0.6,   -1.3,   -1.4,   -1.2,   -0.7,   -1.5,   -1.5,   -1.0,   -1.1,   -0.6,   -0.8,   -1.0,   -0.9,   -0.9,   -1.0,   -0.8,   -0.5,   -0.5,   -0.2,   -0.1,    0.0,    0.2,   -0.1,    0.1,  999.0,    0.1,  999.0,   -0.6,  999.0,  999.0,  999.0,  999.0,    0.0,   -0.0,  999.0,  999.0,  999.0,  999.0,  999.0,  999.0,  999.0,  999.0,  999.0,  999.0
1992/12/19 22:00,   -0.3,   -3.3,   -2.8,   -2.1,   -2.0,   -3.0,   -2.2,   -2.7,   -3.0,   -2.8,   -2.6,   -2.2,   -2.5,   -2.5,   -2.7,   -2.5,   -2.3,   -2.0,   -2.3,   -2.3,   -2.3,   -1.8,   -1.1,   -1.3,   -2.6,   -2.5,   -1.2,   -1.4,   -1.4,   -1.0,   -0.8,   -0.4,   -0.3,   -0.2,   -0.1,    0.0,    0.2,   -0.7,  999.0,  999.0,    0.6,  999.0,  999.0,   -0.0,  999.0,  999.0,   -0.1,    0.2,  999.0,  999.0,  999.0,  999.0,  999.0,  999.0,  999.0,  999.0,  999.0,  999.0
1992/12/19 22:10,   -2.1,   -3.6,   -3.2,   -3.0,   -3.0,   -3.1,   -3.2,   -3.3,   -3.1,   -2.9,   -2.8,   -3.0,   -3.0,   -3.2,   -3.2,   -3.1,   -3.0,   -2.4,   -1.4,   -1.4,   -1.0,   -1.0,   -0.7,   -0.3,    0.3,    0.5,    0.5,    0.7,    0.6,    0.3,    0.5,   -0.5,   -0.9,   -0.2,    0.0,    0.3,    0.1,    0.2,   -0.5,   -0.1,   -0.0,  999.0,  999.0,  999.0,  999.0,  999.0,    0.0,    0.1,  999.0,  999.0,  999.0,  999.0,  999.0,  999.0,  999.0,  999.0,  999.0,  999.0
1992/12/19 22:20,   -3.4,   -3.0,   -3.4,   -3.3,   -2.8,   -2.6,   -2.2,   -1.7,   -2.0,   -0.7,   -0.3,   -0.9,   -0.6,   -0.7,   -0.8,   -0.1,   -0.3,   -0.4,   -0.3,   -0.2,   -0.3,   -0.6,   -0.1,   -0.6,   -0.4,   -0.5,   -0.5,   -0.2,   -0.3,   -0.3,    0.2,    0.1,   -0.1,    0.0,    0.0,   -0.1,   -0.2,   -0.4,   -0.3,   -0.2,   -0.1,   -0.1,   -0.2,    0.1,   -0.0,    0.1,    0.0,    0.2,  999.0,   -0.1,   -0.5,   -0.0,   -0.1,   -0.1,   -0.2,   -0.4,   -0.1,    0.1
1992/12/19 22:30,   -1.0,   -2.2,   -1.9,   -1.7,   -1.7,   -1.1,   -0.1,   -0.2,   -0.4,   -0.4,  999.0,   -0.1,   -0.3,   -0.2,   -0.1,   -0.2,   -0.3,   -0.1,    0.1,    0.3,    0.1,   -0.1,   -0.3,   -0.2,   -0.2,   -0.1,    0.6,    0.3,    0.4,    0.2,    0.1,   -0.3,    0.0,   -0.1,    0.4,   -0.2,    0.3,    0.4,    0.4,    0.4,    0.3,    0.0,   -0.1,   -0.2,  999.0,    0.0,    0.3,   -0.0,   -0.2,   -0.1,  999.0,   -0.2,  999.0,  999.0,  999.0,  999.0,  999.0,  999.0
1992/12/19 22:40,   -0.2,   -0.2,   -0.2,    0.4,    0.1,    0.3,    0.5,    0.1,    0.0,    0.4,    0.3,    0.1,   -0.1,   -0.5,   -0.3,   -0.4,   -0.1,   -0.0,    0.2,   -0.1,   -0.0,   -0.1,   -0.3,   -0.2,   -0.4,   -0.5,   -0.4,   -0.3,   -0.1,   -0.1,    0.0,   -0.1,    0.2,   -0.2,   -0.5,   -0.1,   -0.5,    0.0,   -0.4,   -0.3,   -0.3,   -0.1,    0.1,   -1.2,   -1.7,   -0.9,   -0.2,   -0.3,   -1.4,   -2.3,   -2.4,   -1.4,   -2.1,   -1.7,   -2.1,   -1.8,   -1.1,  999.0
1992/12/19 22:50,  999.0,    1.1,    0.7,    0.1,    0.8,    0.3,    0.4,   -0.2,   -0.2,    0.9,    1.0,    0.3,   -0.3,   -0.1,    0.3,   -0.1,   -0.2,   -0.1,   -0.1,    0.1,   -0.0,    0.3,  999.0,   -0.7,  999.0,  999.0,  999.0,  999.0,  999.0,  999.0,  999.0,  999.0,  999.0,    0.1,  999.0,   -3.7,   -3.5,   -3.2,   -2.9,   -3.0,   -3.1,   -3.0,   -3.0,   -3.0,   -3.1,   -3.2,   -3.1,   -3.0,   -2.9,   -2.5,   -2.5,   -2.3,   -1.8,   -1.8,   -1.5,  999.0,  999.0,  999.0
1992/12/19 23:00,    0.4,   -0.4,   -0.1,   -0.4,  999.0,   -0.3,    0.1,   -0.1,    0.2,    0.2,   -0.6,   -0.0,    0.2,    0.1,    0.1,   -0.1,    0.1,    0.4,    0.0,   -0.0,   -0.1,   -0.2,    0.0,   -0.2,   -0.8,    0.1,   -0.4,  999.0,  999.0,  999.0,  999.0,  999.0,  999.0,  999.0,  999.0,  999.0,   -3.1,   -2.9,   -2.6,   -1.3,  999.0,   -2.7,   -1.4,  999.0,   -1.3,  999.0,   -2.1,  999.0,   -0.1,   -0.1,   -0.1,   -0.2,   -0.2,    0.0,  999.0,  999.0,  999.0,  999.0
1992/12/19 23:10,    0.6,  999.0,  999.0,  999.0,    0.2,   -0.9,    0.3,    0.4,   -0.1,    0.5,    0.1,    0.2,    0.0,   -0.1,   -0.2,   -0.2,    0.0,   -0.1,   -0.0,   -0.2,   -0.4,   -0.3,   -0.1,    0.5,  999.0,  999.0,  999.0,  999.0,  999.0,  999.0,    0.1,   -0.4,  999.0,    0.3,    0.4,   -0.0,    0.5,  999.0,  999.0,    0.1,    0.1,  999.0,    0.4,  999.0,  999.0,   -0.8,  999.0,  999.0,    0.0,   -0.2,  999.0,    0.1,  999.0,  999.0,  999.0,  999.0,  999.0,  999.0
1992/12/19 23:20,   -0.6,   -0.2,   -0.3,   -0.5,   -0.1,   -0.5,    0.0,    0.3,    0.4,    0.2,    0.2,    0.1,   -0.1,   -0.4,   -0.5,   -0.3,   -0.2,   -0.3,   -0.3,   -0.3,   -0.3,   -0.4,   -0.6,   -0.5,   -0.9,   -0.8,   -1.0,   -0.9,   -0.8,   -0.2,    0.1,    0.3,    0.0,   -0.8,   -1.2,   -1.2,   -1.4,   -1.4,   -1.5,   -1.1,   -1.0,   -0.3,   -1.1,   -0.6,   -1.0,   -0.6,   -0.4,   -0.1,  999.0,  999.0,  999.0,  999.0,  999.0,  999.0,  999.0,    0.8,  999.0,  999.0
1992/12/19 23:30,   -1.7,   -1.9,   -1.0,   -2.7,   -1.1,   -1.7,   -1.7,   -3.0,   -1.5,   -3.1,   -3.1,   -3.2,   -3.4,   -3.1,   -3.1,   -3.4,   -3.3,   -3.2,   -3.2,   -3.2,   -3.7,   -3.3,   -2.8,   -2.3,   -2.4,   -4.0,   -2.2,   -2.3,   -1.8,   -2.1,   -2.1,   -4.1,   -3.9,   -4.7,   -3.7,   -2.9,   -4.6,   -4.1,   -3.0,   -3.0,   -3.4,   -2.3,   -2.4,   -2.4,   -2.1,   -1.8,   -1.5,   -1.4,   -0.9,   -0.4,  999.0,  999.0,  999.0,  999.0,  999.0,  999.0,  999.0,   -1.4
1992/12/19 23:40,    0.2,   -0.9,   -3.1,   -3.4,   -3.3,   -2.1,   -2.5,   -1.7,   -2.7,   -2.2,   -2.8,   -4.0,   -3.4,   -3.5,   -3.9,   -1.7,   -3.7,   -3.6,   -2.9,   -3.8,   -4.4,   -3.7,   -2.8,   -2.7,   -2.1,   -1.7,   -2.0,   -2.0,   -1.9,   -1.8,   -1.8,   -3.3,   -3.8,   -3.5,   -3.6,   -3.4,   -2.8,   -2.6,   -2.0,   -2.3,   -2.3,   -2.6,   -1.9,   -2.2,   -3.0,   -2.4,   -2.1,   -4.3,   -4.0,  999.0,  999.0,  999.0,  999.0,  999.0,  999.0,  999.0,   -5.3,   -5.4
1992/12/19 23:50,   -3.9,   -3.9,   -4.2,   -4.1,   -4.0,   -2.8,   -3.7,   -3.2,   -3.6,   -3.6,   -2.8,   -2.4,   -3.3,   -3.2,   -3.3,   -3.3,   -3.7,   -3.4,   -3.4,   -3.9,   -4.0,   -3.8,   -4.2,   -3.8,   -3.5,   -3.3,   -3.1,   -2.8,   -3.3,   -2.9,   -2.7,   -3.2,   -2.8,   -2.9,  999.0,  999.0,   -0.7,   -2.7,   -2.6,   -3.1,   -2.7,   -2.7,   -2.7,   -3.0,   -3.0,  999.0,  999.0,  999.0,  999.0,  999.0,  999.0,  999.0,  999.0,  999.0,  999.0,  999.0,  999.0,  999.0
